Wetterdaten: Donnerstag, 28.07.2022
Datum Zeit Temp. Aussen Temp. o. S. Temp +5cm Feuchte Auss Luftdruck Regen Sonnenschein Regendauer Solar Windben Empfang
28.07.2022 00:00 16,9 C 16,1 C 12,8 C 67 % 1019,6 hPa 0,0 l/m 0 min 0 min 0 W/m 12,9 km/h (3 Bft) 100,00 %
28.07.2022 00:02 16,8 C 16,1 C 12,8 C 67 % 1019,5 hPa 0,0 l/m 0 min 0 min 0 W/m 12,9 km/h (3 Bft) 94,74 %
28.07.2022 00:04 16,8 C 16,1 C 12,8 C 67 % 1019,5 hPa 0,0 l/m 0 min 0 min 0 W/m 6,4 km/h (2 Bft) 97,87 %
28.07.2022 00:08 16,8 C 15,6 C 12,8 C 67 % 1019,5 hPa 0,0 l/m 0 min 0 min 0 W/m 9,7 km/h (2 Bft) 97,00 %
28.07.2022 00:10 16,8 C 15,6 C 12,8 C 67 % 1019,5 hPa 0,0 l/m 0 min 0 min 0 W/m 6,4 km/h (2 Bft) 97,87 %
28.07.2022 00:12 16,8 C 15,6 C 12,8 C 68 % 1019,6 hPa 0,0 l/m 0 min 0 min 0 W/m 12,9 km/h (3 Bft) 95,74 %
28.07.2022 00:14 16,7 C 15,6 C 12,2 C 68 % 1019,7 hPa 0,0 l/m 0 min 0 min 0 W/m 3,2 km/h (1 Bft) 97,87 %
28.07.2022 00:16 16,7 C 15,6 C 12,2 C 68 % 1019,7 hPa 0,0 l/m 0 min 0 min 0 W/m 6,4 km/h (2 Bft) 97,87 %
28.07.2022 00:18 16,7 C 15,6 C 12,2 C 68 % 1019,7 hPa 0,0 l/m 0 min 0 min 0 W/m 6,4 km/h (2 Bft) 95,74 %
28.07.2022 00:20 16,7 C 15,6 C 12,2 C 68 % 1019,7 hPa 0,0 l/m 0 min 0 min 0 W/m 9,7 km/h (2 Bft) 97,83 %
28.07.2022 00:22 16,6 C 15,6 C 12,2 C 68 % 1019,8 hPa 0,0 l/m 0 min 0 min 0 W/m 16,1 km/h (3 Bft) 95,74 %
28.07.2022 00:24 16,6 C 15,6 C 12,2 C 68 % 1019,7 hPa 0,0 l/m 0 min 0 min 0 W/m 16,1 km/h (3 Bft) 95,74 %
28.07.2022 00:26 16,6 C 15,6 C 12,2 C 68 % 1019,7 hPa 0,0 l/m 0 min 0 min 0 W/m 12,9 km/h (3 Bft) 97,87 %
28.07.2022 00:28 16,6 C 15,6 C 12,2 C 68 % 1019,7 hPa 0,0 l/m 0 min 0 min 0 W/m 16,1 km/h (3 Bft) 93,62 %
28.07.2022 00:30 16,6 C 15,6 C 12,2 C 68 % 1019,7 hPa 0,0 l/m 0 min 0 min 0 W/m 9,7 km/h (2 Bft) 93,48 %
28.07.2022 00:32 16,6 C 15,6 C 12,2 C 68 % 1019,7 hPa 0,0 l/m 0 min 0 min 0 W/m 9,7 km/h (2 Bft) 97,87 %
28.07.2022 00:34 16,6 C 15,6 C 12,2 C 69 % 1019,7 hPa 0,0 l/m 0 min 0 min 0 W/m 16,1 km/h (3 Bft) 97,87 %
28.07.2022 00:36 16,5 C 15,6 C 12,2 C 69 % 1019,7 hPa 0,0 l/m 0 min 0 min 0 W/m 16,1 km/h (3 Bft) 97,87 %
28.07.2022 00:38 16,5 C 15,6 C 12,2 C 69 % 1019,7 hPa 0,0 l/m 0 min 0 min 0 W/m 6,4 km/h (2 Bft) 97,87 %
28.07.2022 00:40 16,5 C 15,6 C 12,2 C 69 % 1019,8 hPa 0,0 l/m 0 min 0 min 0 W/m 6,4 km/h (2 Bft) 95,74 %
28.07.2022 00:42 16,4 C 15,6 C 12,2 C 69 % 1019,8 hPa 0,0 l/m 0 min 0 min 0 W/m 6,4 km/h (2 Bft) 97,87 %
28.07.2022 00:44 16,4 C 15,6 C 12,2 C 69 % 1019,8 hPa 0,0 l/m 0 min 0 min 0 W/m 12,9 km/h (3 Bft) 95,65 %
28.07.2022 00:46 16,4 C 15,6 C 12,2 C 69 % 1019,9 hPa 0,0 l/m 0 min 0 min 0 W/m 16,1 km/h (3 Bft) 93,62 %
28.07.2022 00:48 16,4 C 15,6 C 12,2 C 69 % 1019,8 hPa 0,0 l/m 0 min 0 min 0 W/m 9,7 km/h (2 Bft) 95,74 %
28.07.2022 00:50 16,3 C 15,6 C 12,2 C 69 % 1019,9 hPa 0,0 l/m 0 min 0 min 0 W/m 6,4 km/h (2 Bft) 95,74 %
28.07.2022 00:52 16,3 C 15,6 C 12,2 C 69 % 1019,8 hPa 0,0 l/m 0 min 0 min 0 W/m 9,7 km/h (2 Bft) 95,74 %
28.07.2022 00:54 16,3 C 15,6 C 12,2 C 69 % 1019,8 hPa 0,0 l/m 0 min 0 min 0 W/m 6,4 km/h (2 Bft) 95,74 %
28.07.2022 00:56 16,3 C 15,6 C 12,2 C 69 % 1019,9 hPa 0,0 l/m 0 min 0 min 0 W/m 16,1 km/h (3 Bft) 93,48 %
28.07.2022 00:58 16,3 C 15,6 C 12,2 C 69 % 1019,8 hPa 0,0 l/m 0 min 0 min 0 W/m 9,7 km/h (2 Bft) 95,74 %
28.07.2022 01:00 16,3 C 15,6 C 12,2 C 69 % 1019,8 hPa 0,0 l/m 0 min 0 min 0 W/m 16,1 km/h (3 Bft) 93,62 %
28.07.2022 01:02 16,3 C 15,6 C 12,2 C 69 % 1019,9 hPa 0,0 l/m 0 min 0 min 0 W/m 22,5 km/h (4 Bft) 93,62 %
28.07.2022 01:04 16,3 C 15,6 C 12,2 C 69 % 1019,9 hPa 0,0 l/m 0 min 0 min 0 W/m 12,9 km/h (3 Bft) 97,87 %
28.07.2022 01:06 16,3 C 15,6 C 12,2 C 69 % 1019,9 hPa 0,0 l/m 0 min 0 min 0 W/m 6,4 km/h (2 Bft) 97,83 %
28.07.2022 01:08 16,3 C 15,6 C 12,2 C 69 % 1019,9 hPa 0,0 l/m 0 min 0 min 0 W/m 6,4 km/h (2 Bft) 95,74 %
28.07.2022 01:10 16,3 C 15,6 C 12,2 C 69 % 1019,9 hPa 0,0 l/m 0 min 0 min 0 W/m 12,9 km/h (3 Bft) 97,87 %
28.07.2022 01:12 16,2 C 15,6 C 12,2 C 69 % 1019,9 hPa 0,0 l/m 0 min 0 min 0 W/m 6,4 km/h (2 Bft) 95,74 %
28.07.2022 01:14 16,2 C 15,6 C 12,2 C 69 % 1019,9 hPa 0,0 l/m 0 min 0 min 0 W/m 6,4 km/h (2 Bft) 97,87 %
28.07.2022 01:16 16,2 C 15,6 C 11,7 C 70 % 1019,9 hPa 0,0 l/m 0 min 0 min 0 W/m 9,7 km/h (2 Bft) 97,87 %
28.07.2022 01:18 16,2 C 15,0 C 11,7 C 69 % 1019,9 hPa 0,0 l/m 0 min 0 min 0 W/m 6,4 km/h (2 Bft) 95,74 %
28.07.2022 01:20 16,1 C 15,0 C 11,7 C 69 % 1019,9 hPa 0,0 l/m 0 min 0 min 0 W/m 9,7 km/h (2 Bft) 95,65 %
28.07.2022 01:22 16,1 C 15,0 C 11,7 C 69 % 1019,9 hPa 0,0 l/m 0 min 0 min 0 W/m 12,9 km/h (3 Bft) 95,74 %
28.07.2022 01:24 16,1 C 15,0 C 11,7 C 69 % 1019,9 hPa 0,0 l/m 0 min 0 min 0 W/m 6,4 km/h (2 Bft) 95,74 %
28.07.2022 01:26 16,0 C 15,0 C 11,7 C 69 % 1019,9 hPa 0,0 l/m 0 min 0 min 0 W/m 16,1 km/h (3 Bft) 95,74 %
28.07.2022 01:28 16,0 C 15,0 C 11,7 C 69 % 1019,9 hPa 0,0 l/m 0 min 0 min 0 W/m 12,9 km/h (3 Bft) 97,87 %
28.07.2022 01:30 16,0 C 15,0 C 11,7 C 69 % 1019,9 hPa 0,0 l/m 0 min 0 min 0 W/m 16,1 km/h (3 Bft) 97,83 %
28.07.2022 01:32 15,9 C 15,0 C 11,7 C 69 % 1019,9 hPa 0,0 l/m 0 min 0 min 0 W/m 12,9 km/h (3 Bft) 97,87 %
28.07.2022 01:34 15,9 C 15,0 C 11,7 C 69 % 1019,8 hPa 0,0 l/m 0 min 0 min 0 W/m 12,9 km/h (3 Bft) 97,87 %
28.07.2022 01:36 15,9 C 15,0 C 11,7 C 69 % 1019,8 hPa 0,0 l/m 0 min 0 min 0 W/m 6,4 km/h (2 Bft) 95,74 %
28.07.2022 01:38 15,9 C 15,0 C 11,7 C 69 % 1019,8 hPa 0,0 l/m 0 min 0 min 0 W/m 9,7 km/h (2 Bft) 100,00 %
28.07.2022 01:40 15,9 C 15,0 C 11,7 C 69 % 1019,8 hPa 0,0 l/m 0 min 0 min 0 W/m 16,1 km/h (3 Bft) 95,74 %
28.07.2022 01:42 15,9 C 15,0 C 11,7 C 69 % 1019,8 hPa 0,0 l/m 0 min 0 min 0 W/m 12,9 km/h (3 Bft) 97,83 %
28.07.2022 01:44 15,9 C 15,0 C 11,7 C 69 % 1019,8 hPa 0,0 l/m 0 min 0 min 0 W/m 9,7 km/h (2 Bft) 97,87 %
28.07.2022 01:46 15,9 C 15,0 C 11,7 C 70 % 1019,8 hPa 0,0 l/m 0 min 0 min 0 W/m 12,9 km/h (3 Bft) 97,87 %
28.07.2022 01:48 15,9 C 15,0 C 11,7 C 69 % 1019,8 hPa 0,0 l/m 0 min 0 min 0 W/m 9,7 km/h (2 Bft) 97,87 %
28.07.2022 01:50 15,8 C 15,0 C 11,7 C 69 % 1019,8 hPa 0,0 l/m 0 min 0 min 0 W/m 9,7 km/h (2 Bft) 100,00 %
28.07.2022 01:52 15,8 C 15,0 C 11,7 C 69 % 1019,7 hPa 0,0 l/m 0 min 0 min 0 W/m 9,7 km/h (2 Bft) 97,87 %
28.07.2022 01:54 15,8 C 15,0 C 11,7 C 70 % 1019,7 hPa 0,0 l/m 0 min 0 min 0 W/m 12,9 km/h (3 Bft) 100,00 %
28.07.2022 01:56 15,8 C 15,0 C 11,7 C 70 % 1019,8 hPa 0,0 l/m 0 min 0 min 0 W/m 9,7 km/h (2 Bft) 97,87 %
28.07.2022 01:58 15,8 C 15,0 C 11,7 C 70 % 1019,8 hPa 0,0 l/m 0 min 0 min 0 W/m 12,9 km/h (3 Bft) 100,00 %
28.07.2022 02:00 15,7 C 15,0 C 11,7 C 69 % 1019,8 hPa 0,0 l/m 0 min 0 min 0 W/m 6,4 km/h (2 Bft) 100,00 %
28.07.2022 02:02 15,7 C 15,0 C 11,7 C 70 % 1019,8 hPa 0,0 l/m 0 min 0 min 0 W/m 6,4 km/h (2 Bft) 97,87 %
28.07.2022 02:04 15,7 C 15,0 C 11,7 C 70 % 1019,8 hPa 0,0 l/m 0 min 0 min 0 W/m 6,4 km/h (2 Bft) 100,00 %
28.07.2022 02:06 15,7 C 15,0 C 11,1 C 70 % 1019,8 hPa 0,0 l/m 0 min 0 min 0 W/m 12,9 km/h (3 Bft) 100,00 %
28.07.2022 02:08 15,7 C 15,0 C 11,1 C 70 % 1019,8 hPa 0,0 l/m 0 min 0 min 0 W/m 9,7 km/h (2 Bft) 100,00 %
28.07.2022 02:10 15,6 C 14,4 C 11,1 C 71 % 1019,8 hPa 0,0 l/m 0 min 0 min 0 W/m 6,4 km/h (2 Bft) 100,00 %
28.07.2022 02:12 15,6 C 14,4 C 11,1 C 71 % 1019,9 hPa 0,0 l/m 0 min 0 min 0 W/m 12,9 km/h (3 Bft) 100,00 %
28.07.2022 02:14 15,6 C 14,4 C 11,1 C 71 % 1019,8 hPa 0,0 l/m 0 min 0 min 0 W/m 6,4 km/h (2 Bft) 100,00 %
28.07.2022 02:16 15,6 C 14,4 C 11,1 C 71 % 1019,8 hPa 0,0 l/m 0 min 0 min 0 W/m 6,4 km/h (2 Bft) 100,00 %
28.07.2022 02:18 15,5 C 14,4 C 11,1 C 71 % 1019,7 hPa 0,0 l/m 0 min 0 min 0 W/m 6,4 km/h (2 Bft) 100,00 %
28.07.2022 02:20 15,5 C 14,4 C 11,1 C 71 % 1019,7 hPa 0,0 l/m 0 min 0 min 0 W/m 3,2 km/h (1 Bft) 100,00 %
28.07.2022 02:22 15,4 C 14,4 C 11,1 C 71 % 1019,7 hPa 0,0 l/m 0 min 0 min 0 W/m 6,4 km/h (2 Bft) 100,00 %
28.07.2022 02:24 15,4 C 14,4 C 11,1 C 72 % 1019,7 hPa 0,0 l/m 0 min 0 min 0 W/m 6,4 km/h (2 Bft) 100,00 %
28.07.2022 02:26 15,3 C 14,4 C 11,1 C 72 % 1019,6 hPa 0,0 l/m 0 min 0 min 0 W/m 6,4 km/h (2 Bft) 100,00 %
28.07.2022 02:28 15,3 C 14,4 C 11,1 C 72 % 1019,7 hPa 0,0 l/m 0 min 0 min 0 W/m 6,4 km/h (2 Bft) 100,00 %
28.07.2022 02:30 15,3 C 14,4 C 11,1 C 73 % 1019,7 hPa 0,0 l/m 0 min 0 min 0 W/m 6,4 km/h (2 Bft) 100,00 %
28.07.2022 02:32 15,2 C 14,4 C 11,1 C 73 % 1019,7 hPa 0,0 l/m 0 min 0 min 0 W/m 3,2 km/h (1 Bft) 100,00 %
28.07.2022 02:34 15,2 C 14,4 C 11,1 C 73 % 1019,7 hPa 0,0 l/m 0 min 0 min 0 W/m 6,4 km/h (2 Bft) 100,00 %
28.07.2022 02:36 15,2 C 14,4 C 11,1 C 73 % 1019,7 hPa 0,0 l/m 0 min 0 min 0 W/m 3,2 km/h (1 Bft) 100,00 %
28.07.2022 02:38 15,2 C 14,4 C 11,1 C 73 % 1019,7 hPa 0,0 l/m 0 min 0 min 0 W/m 6,4 km/h (2 Bft) 100,00 %
28.07.2022 02:40 15,2 C 14,4 C 11,1 C 73 % 1019,6 hPa 0,0 l/m 0 min 0 min 0 W/m 3,2 km/h (1 Bft) 100,00 %
28.07.2022 02:42 15,1 C 14,4 C 11,1 C 74 % 1019,6 hPa 0,0 l/m 0 min 0 min 0 W/m 6,4 km/h (2 Bft) 97,96 %
28.07.2022 02:44 15,1 C 14,4 C 11,1 C 74 % 1019,6 hPa 0,0 l/m 0 min 0 min 0 W/m 6,4 km/h (2 Bft) 100,00 %
28.07.2022 02:46 15,1 C 14,4 C 11,1 C 74 % 1019,6 hPa 0,0 l/m 0 min 0 min 0 W/m 12,9 km/h (3 Bft) 98,11 %
28.07.2022 02:48 15,1 C 14,4 C 11,1 C 74 % 1019,6 hPa 0,0 l/m 0 min 0 min 0 W/m 6,4 km/h (2 Bft) 100,00 %
28.07.2022 02:50 15,0 C 14,4 C 10,6 C 74 % 1019,6 hPa 0,0 l/m 0 min 0 min 0 W/m 6,4 km/h (2 Bft) 97,87 %
28.07.2022 02:52 15,0 C 14,4 C 11,1 C 74 % 1019,6 hPa 0,0 l/m 0 min 0 min 0 W/m 6,4 km/h (2 Bft) 100,00 %
28.07.2022 02:54 15,0 C 14,4 C 10,6 C 74 % 1019,5 hPa 0,0 l/m 0 min 0 min 0 W/m 6,4 km/h (2 Bft) 100,00 %
28.07.2022 02:56 14,9 C 13,9 C 10,6 C 74 % 1019,5 hPa 0,0 l/m 0 min 0 min 0 W/m 12,9 km/h (3 Bft) 97,83 %
28.07.2022 02:58 14,9 C 13,9 C 10,6 C 74 % 1019,5 hPa 0,0 l/m 0 min 0 min 0 W/m 6,4 km/h (2 Bft) 97,87 %
28.07.2022 03:00 14,9 C 13,9 C 10,6 C 74 % 1019,5 hPa 0,0 l/m 0 min 0 min 0 W/m 6,4 km/h (2 Bft) 100,00 %
28.07.2022 03:02 14,8 C 13,9 C 10,6 C 74 % 1019,5 hPa 0,0 l/m 0 min 0 min 0 W/m 6,4 km/h (2 Bft) 97,87 %
28.07.2022 03:04 14,8 C 13,9 C 10,6 C 74 % 1019,5 hPa 0,0 l/m 0 min 0 min 0 W/m 6,4 km/h (2 Bft) 100,00 %
28.07.2022 03:06 14,8 C 13,9 C 10,6 C 74 % 1019,5 hPa 0,0 l/m 0 min 0 min 0 W/m 3,2 km/h (1 Bft) 98,31 %
28.07.2022 03:08 14,8 C 13,9 C 10,6 C 74 % 1019,5 hPa 0,0 l/m 0 min 0 min 0 W/m 3,2 km/h (1 Bft) 94,12 %
28.07.2022 03:10 14,8 C 13,9 C 10,6 C 74 % 1019,5 hPa 0,0 l/m 0 min 0 min 0 W/m 3,2 km/h (1 Bft) 97,87 %
28.07.2022 03:12 14,7 C 13,9 C 10,6 C 74 % 1019,5 hPa 0,0 l/m 0 min 0 min 0 W/m 6,4 km/h (2 Bft) 97,87 %
28.07.2022 03:14 14,7 C 13,9 C 10,6 C 74 % 1019,5 hPa 0,0 l/m 0 min 0 min 0 W/m 6,4 km/h (2 Bft) 95,74 %
28.07.2022 03:16 14,7 C 13,9 C 10,6 C 75 % 1019,5 hPa 0,0 l/m 0 min 0 min 0 W/m 3,2 km/h (1 Bft) 95,74 %
28.07.2022 03:18 14,7 C 13,9 C 10,6 C 75 % 1019,5 hPa 0,0 l/m 0 min 0 min 0 W/m 6,4 km/h (2 Bft) 91,49 %
28.07.2022 03:20 14,6 C 13,9 C 10,6 C 75 % 1019,5 hPa 0,0 l/m 0 min 0 min 0 W/m 6,4 km/h (2 Bft) 93,48 %
28.07.2022 03:22 14,6 C 13,9 C 10,6 C 75 % 1019,5 hPa 0,0 l/m 0 min 0 min 0 W/m 6,4 km/h (2 Bft) 91,49 %
28.07.2022 03:24 14,6 C 13,9 C 10,0 C 75 % 1019,6 hPa 0,0 l/m 0 min 0 min 0 W/m 3,2 km/h (1 Bft) 91,49 %
28.07.2022 03:26 14,5 C 13,3 C 10,0 C 75 % 1019,6 hPa 0,0 l/m 0 min 0 min 0 W/m 6,4 km/h (2 Bft) 91,49 %
28.07.2022 03:28 14,4 C 13,3 C 10,0 C 75 % 1019,5 hPa 0,0 l/m 0 min 0 min 0 W/m 6,4 km/h (2 Bft) 93,62 %
28.07.2022 03:30 14,4 C 13,3 C 10,0 C 75 % 1019,5 hPa 0,0 l/m 0 min 0 min 0 W/m 6,4 km/h (2 Bft) 93,62 %
28.07.2022 03:32 14,4 C 13,3 C 10,0 C 76 % 1019,4 hPa 0,0 l/m 0 min 0 min 0 W/m 6,4 km/h (2 Bft) 93,62 %
28.07.2022 03:34 14,3 C 13,3 C 10,0 C 76 % 1019,4 hPa 0,0 l/m 0 min 0 min 0 W/m 6,4 km/h (2 Bft) 93,48 %
28.07.2022 03:36 14,3 C 13,3 C 10,0 C 76 % 1019,4 hPa 0,0 l/m 0 min 0 min 0 W/m 6,4 km/h (2 Bft) 96,61 %
28.07.2022 03:38 14,3 C 13,3 C 10,0 C 76 % 1019,4 hPa 0,0 l/m 0 min 0 min 0 W/m 6,4 km/h (2 Bft) 94,29 %
28.07.2022 03:40 14,3 C 13,3 C 10,0 C 76 % 1019,3 hPa 0,0 l/m 0 min 0 min 0 W/m 6,4 km/h (2 Bft) 95,74 %
28.07.2022 03:42 14,3 C 13,3 C 10,0 C 76 % 1019,4 hPa 0,0 l/m 0 min 0 min 0 W/m 6,4 km/h (2 Bft) 93,62 %
28.07.2022 03:44 14,3 C 13,3 C 10,0 C 76 % 1019,4 hPa 0,0 l/m 0 min 0 min 0 W/m 3,2 km/h (1 Bft) 93,48 %
28.07.2022 03:46 14,3 C 13,3 C 10,0 C 77 % 1019,4 hPa 0,0 l/m 0 min 0 min 0 W/m 9,7 km/h (2 Bft) 95,74 %
28.07.2022 03:48 14,3 C 13,3 C 10,0 C 77 % 1019,5 hPa 0,0 l/m 0 min 0 min 0 W/m 6,4 km/h (2 Bft) 95,74 %
28.07.2022 03:50 14,2 C 13,3 C 10,0 C 77 % 1019,4 hPa 0,0 l/m 0 min 0 min 0 W/m 3,2 km/h (1 Bft) 95,74 %
28.07.2022 03:52 14,2 C 13,3 C 10,0 C 77 % 1019,4 hPa 0,0 l/m 0 min 0 min 0 W/m 3,2 km/h (1 Bft) 95,74 %
28.07.2022 03:54 14,1 C 13,3 C 10,0 C 77 % 1019,4 hPa 0,0 l/m 0 min 0 min 0 W/m 3,2 km/h (1 Bft) 97,87 %
28.07.2022 03:56 14,1 C 13,3 C 10,0 C 77 % 1019,3 hPa 0,0 l/m 0 min 0 min 0 W/m 6,4 km/h (2 Bft) 95,65 %
28.07.2022 03:58 14,1 C 13,3 C 10,0 C 77 % 1019,3 hPa 0,0 l/m 0 min 0 min 0 W/m 3,2 km/h (1 Bft) 97,87 %
28.07.2022 04:00 14,1 C 13,3 C 10,0 C 77 % 1019,2 hPa 0,0 l/m 0 min 0 min 0 W/m 3,2 km/h (1 Bft) 95,74 %
28.07.2022 04:05 13,9 C 12,8 C 9,4 C 78 % 1019,3 hPa 0,0 l/m 0 min 0 min 0 W/m 6,4 km/h (2 Bft) 94,74 %
28.07.2022 04:06 13,9 C 12,8 C 9,4 C 78 % 1019,2 hPa 0,0 l/m 0 min 0 min 0 W/m 6,4 km/h (2 Bft) 100,00 %
28.07.2022 04:08 13,9 C 12,8 C 9,4 C 78 % 1019,2 hPa 0,0 l/m 0 min 0 min 0 W/m 3,2 km/h (1 Bft) 97,30 %
28.07.2022 04:10 13,8 C 12,8 C 9,4 C 78 % 1019,2 hPa 0,0 l/m 0 min 0 min 0 W/m 6,4 km/h (2 Bft) 100,00 %
28.07.2022 04:12 13,8 C 12,8 C 9,4 C 78 % 1019,2 hPa 0,0 l/m 0 min 0 min 0 W/m 12,9 km/h (3 Bft) 97,87 %
28.07.2022 04:14 13,8 C 12,8 C 9,4 C 78 % 1019,2 hPa 0,0 l/m 0 min 0 min 0 W/m 3,2 km/h (1 Bft) 100,00 %
28.07.2022 04:16 13,8 C 12,8 C 9,4 C 78 % 1019,2 hPa 0,0 l/m 0 min 0 min 0 W/m 3,2 km/h (1 Bft) 97,87 %
28.07.2022 04:18 13,8 C 12,8 C 10,0 C 78 % 1019,2 hPa 0,0 l/m 0 min 0 min 0 W/m 3,2 km/h (1 Bft) 100,00 %
28.07.2022 04:20 13,7 C 12,8 C 10,0 C 78 % 1019,1 hPa 0,0 l/m 0 min 0 min 0 W/m 6,4 km/h (2 Bft) 97,87 %
28.07.2022 04:22 13,7 C 12,8 C 10,0 C 78 % 1019,1 hPa 0,0 l/m 0 min 0 min 0 W/m 3,2 km/h (1 Bft) 97,83 %
28.07.2022 04:24 13,7 C 12,8 C 10,0 C 78 % 1019,1 hPa 0,0 l/m 0 min 0 min 0 W/m 6,4 km/h (2 Bft) 100,00 %
28.07.2022 04:26 13,7 C 12,8 C 10,0 C 78 % 1019,0 hPa 0,0 l/m 0 min 0 min 0 W/m 6,4 km/h (2 Bft) 97,87 %
28.07.2022 04:28 13,7 C 13,3 C 10,0 C 78 % 1019,0 hPa 0,0 l/m 0 min 0 min 0 W/m 6,4 km/h (2 Bft) 100,00 %
28.07.2022 04:30 13,7 C 13,3 C 10,0 C 78 % 1019,1 hPa 0,0 l/m 0 min 0 min 0 W/m 6,4 km/h (2 Bft) 97,87 %
28.07.2022 04:32 13,7 C 13,3 C 10,0 C 78 % 1019,0 hPa 0,0 l/m 0 min 0 min 0 W/m 6,4 km/h (2 Bft) 100,00 %
28.07.2022 04:34 13,7 C 13,3 C 10,0 C 78 % 1019,0 hPa 0,0 l/m 0 min 0 min 0 W/m 6,4 km/h (2 Bft) 100,00 %
28.07.2022 04:36 13,7 C 13,3 C 10,0 C 78 % 1019,0 hPa 0,0 l/m 0 min 0 min 0 W/m 3,2 km/h (1 Bft) 56,52 %
28.07.2022 04:38 13,7 C 12,8 C 10,0 C 78 % 1018,9 hPa 0,0 l/m 0 min 0 min 0 W/m 9,7 km/h (2 Bft) 100,00 %
28.07.2022 04:40 13,7 C 12,8 C 10,0 C 78 % 1018,9 hPa 0,0 l/m 0 min 0 min 0 W/m 3,2 km/h (1 Bft) 100,00 %
28.07.2022 04:42 13,8 C 12,8 C 10,0 C 78 % 1018,9 hPa 0,0 l/m 0 min 0 min 0 W/m 6,4 km/h (2 Bft) 100,00 %
28.07.2022 04:44 13,7 C 12,8 C 9,4 C 78 % 1018,9 hPa 0,0 l/m 0 min 0 min 0 W/m 6,4 km/h (2 Bft) 100,00 %
28.07.2022 04:46 13,7 C 12,8 C 9,4 C 78 % 1018,9 hPa 0,0 l/m 0 min 0 min 0 W/m 6,4 km/h (2 Bft) 100,00 %
28.07.2022 04:48 13,7 C 12,8 C 9,4 C 79 % 1018,9 hPa 0,0 l/m 0 min 0 min 0 W/m 6,4 km/h (2 Bft) 100,00 %
28.07.2022 04:50 13,7 C 12,8 C 9,4 C 79 % 1018,9 hPa 0,0 l/m 0 min 0 min 0 W/m 6,4 km/h (2 Bft) 97,87 %
28.07.2022 04:52 13,7 C 12,8 C 9,4 C 79 % 1018,9 hPa 0,0 l/m 0 min 0 min 0 W/m 6,4 km/h (2 Bft) 97,87 %
28.07.2022 04:54 13,7 C 12,8 C 9,4 C 79 % 1018,9 hPa 0,0 l/m 0 min 0 min 0 W/m 6,4 km/h (2 Bft) 97,87 %
28.07.2022 04:56 13,7 C 12,8 C 9,4 C 79 % 1018,9 hPa 0,0 l/m 0 min 0 min 0 W/m 6,4 km/h (2 Bft) 97,87 %
28.07.2022 04:58 13,6 C 12,8 C 9,4 C 79 % 1018,9 hPa 0,0 l/m 0 min 0 min 0 W/m 6,4 km/h (2 Bft) 95,65 %
28.07.2022 05:00 13,6 C 12,8 C 9,4 C 79 % 1018,8 hPa 0,0 l/m 0 min 0 min 0 W/m 6,4 km/h (2 Bft) 97,87 %
28.07.2022 05:02 13,6 C 12,8 C 9,4 C 79 % 1018,9 hPa 0,0 l/m 0 min 0 min 0 W/m 9,7 km/h (2 Bft) 97,87 %
28.07.2022 05:04 13,6 C 12,8 C 9,4 C 79 % 1018,9 hPa 0,0 l/m 0 min 0 min 0 W/m 6,4 km/h (2 Bft) 97,87 %
28.07.2022 05:06 13,5 C 12,8 C 9,4 C 79 % 1018,8 hPa 0,0 l/m 0 min 0 min 0 W/m 6,4 km/h (2 Bft) 95,74 %
28.07.2022 05:08 13,5 C 12,8 C 9,4 C 79 % 1018,8 hPa 0,0 l/m 0 min 0 min 0 W/m 3,2 km/h (1 Bft) 97,87 %
28.07.2022 05:10 13,4 C 12,8 C 9,4 C 79 % 1018,7 hPa 0,0 l/m 0 min 0 min 0 W/m 12,9 km/h (3 Bft) 97,83 %
28.07.2022 05:12 13,4 C 12,8 C 9,4 C 80 % 1018,7 hPa 0,0 l/m 0 min 0 min 0 W/m 9,7 km/h (2 Bft) 97,87 %
28.07.2022 05:14 13,4 C 12,2 C 9,4 C 80 % 1018,8 hPa 0,0 l/m 0 min 0 min 0 W/m 6,4 km/h (2 Bft) 97,87 %
28.07.2022 05:16 13,3 C 12,2 C 8,9 C 80 % 1018,8 hPa 0,0 l/m 0 min 0 min 0 W/m 6,4 km/h (2 Bft) 95,74 %
28.07.2022 05:18 13,3 C 12,2 C 8,9 C 80 % 1018,8 hPa 0,0 l/m 0 min 0 min 0 W/m 3,2 km/h (1 Bft) 97,87 %
28.07.2022 05:20 13,3 C 12,2 C 8,9 C 80 % 1018,8 hPa 0,0 l/m 0 min 0 min 0 W/m 6,4 km/h (2 Bft) 100,00 %
28.07.2022 05:22 13,3 C 12,2 C 8,9 C 80 % 1018,8 hPa 0,0 l/m 0 min 0 min 0 W/m 3,2 km/h (1 Bft) 97,83 %
28.07.2022 05:24 13,2 C 12,2 C 8,9 C 80 % 1018,8 hPa 0,0 l/m 0 min 0 min 0 W/m 6,4 km/h (2 Bft) 100,00 %
28.07.2022 05:26 13,2 C 12,2 C 8,9 C 80 % 1018,8 hPa 0,0 l/m 0 min 0 min 0 W/m 3,2 km/h (1 Bft) 97,87 %
28.07.2022 05:28 13,2 C 12,2 C 8,9 C 80 % 1018,8 hPa 0,0 l/m 0 min 0 min 0 W/m 6,4 km/h (2 Bft) 97,87 %
28.07.2022 05:30 13,2 C 12,2 C 8,9 C 80 % 1018,9 hPa 0,0 l/m 0 min 0 min 0 W/m 6,4 km/h (2 Bft) 97,87 %
28.07.2022 05:32 13,1 C 12,2 C 8,9 C 80 % 1018,9 hPa 0,0 l/m 0 min 0 min 0 W/m 6,4 km/h (2 Bft) 100,00 %
28.07.2022 05:34 13,1 C 12,2 C 8,9 C 81 % 1018,9 hPa 0,0 l/m 0 min 0 min 0 W/m 6,4 km/h (2 Bft) 95,65 %
28.07.2022 05:36 13,1 C 12,2 C 8,9 C 81 % 1019,0 hPa 0,0 l/m 0 min 0 min 0 W/m 6,4 km/h (2 Bft) 97,87 %
28.07.2022 05:38 13,0 C 12,2 C 8,9 C 81 % 1019,0 hPa 0,0 l/m 0 min 0 min 0 W/m 6,4 km/h (2 Bft) 97,87 %
28.07.2022 05:40 13,0 C 12,2 C 8,9 C 81 % 1019,0 hPa 0,0 l/m 0 min 0 min 0 W/m 6,4 km/h (2 Bft) 97,87 %
28.07.2022 05:42 12,9 C 12,2 C 8,9 C 81 % 1019,0 hPa 0,0 l/m 0 min 0 min 0 W/m 6,4 km/h (2 Bft) 97,87 %
28.07.2022 05:44 12,9 C 12,2 C 8,9 C 81 % 1019,0 hPa 0,0 l/m 0 min 0 min 0 W/m 3,2 km/h (1 Bft) 97,87 %
28.07.2022 05:46 12,9 C 12,2 C 8,9 C 82 % 1019,0 hPa 0,0 l/m 0 min 0 min 0 W/m 6,4 km/h (2 Bft) 95,65 %
28.07.2022 05:48 12,9 C 12,2 C 8,9 C 82 % 1019,0 hPa 0,0 l/m 0 min 0 min 0 W/m 3,2 km/h (1 Bft) 97,87 %
28.07.2022 05:50 12,8 C 12,2 C 8,9 C 82 % 1019,0 hPa 0,0 l/m 0 min 0 min 0 W/m 6,4 km/h (2 Bft) 97,87 %
28.07.2022 05:52 12,8 C 12,2 C 8,9 C 82 % 1019,0 hPa 0,0 l/m 0 min 0 min 0 W/m 3,2 km/h (1 Bft) 97,87 %
28.07.2022 05:54 12,8 C 12,2 C 8,9 C 82 % 1019,1 hPa 0,0 l/m 0 min 0 min 0 W/m 3,2 km/h (1 Bft) 97,87 %
28.07.2022 05:56 12,8 C 12,2 C 8,9 C 82 % 1019,1 hPa 0,0 l/m 0 min 0 min 0 W/m 3,2 km/h (1 Bft) 97,87 %
28.07.2022 05:58 12,8 C 12,2 C 8,9 C 82 % 1019,1 hPa 0,0 l/m 0 min 0 min 0 W/m 3,2 km/h (1 Bft) 97,83 %
28.07.2022 06:00 12,8 C 12,2 C 8,9 C 82 % 1019,1 hPa 0,0 l/m 0 min 0 min 5 W/m 3,2 km/h (1 Bft) 97,87 %
28.07.2022 06:02 12,7 C 11,7 C 8,9 C 83 % 1019,1 hPa 0,0 l/m 0 min 0 min 5 W/m 3,2 km/h (1 Bft) 93,62 %
28.07.2022 06:04 12,7 C 11,7 C 8,9 C 83 % 1019,0 hPa 0,0 l/m 0 min 0 min 7 W/m 3,2 km/h (1 Bft) 97,87 %
28.07.2022 06:08 12,7 C 11,7 C 8,9 C 83 % 1019,0 hPa 0,0 l/m 0 min 0 min 8 W/m 3,2 km/h (1 Bft) 96,81 %
28.07.2022 06:10 12,7 C 12,2 C 8,9 C 83 % 1019,0 hPa 0,0 l/m 0 min 0 min 9 W/m 3,2 km/h (1 Bft) 97,83 %
28.07.2022 06:12 12,6 C 11,7 C 8,9 C 83 % 1019,0 hPa 0,0 l/m 0 min 0 min 11 W/m 3,2 km/h (1 Bft) 97,87 %
28.07.2022 06:14 12,6 C 11,7 C 8,9 C 83 % 1019,0 hPa 0,0 l/m 0 min 0 min 12 W/m 3,2 km/h (1 Bft) 100,00 %
28.07.2022 06:16 12,6 C 11,7 C 8,9 C 84 % 1018,9 hPa 0,0 l/m 0 min 0 min 13 W/m 3,2 km/h (1 Bft) 100,00 %
28.07.2022 06:18 12,6 C 11,7 C 8,9 C 84 % 1019,0 hPa 0,0 l/m 0 min 0 min 15 W/m 3,2 km/h (1 Bft) 100,00 %
28.07.2022 06:20 12,6 C 11,7 C 8,9 C 84 % 1018,9 hPa 0,0 l/m 0 min 0 min 17 W/m 3,2 km/h (1 Bft) 100,00 %
28.07.2022 06:22 12,6 C 12,2 C 8,9 C 84 % 1018,9 hPa 0,0 l/m 0 min 0 min 18 W/m 3,2 km/h (1 Bft) 100,00 %
28.07.2022 06:24 12,6 C 12,2 C 8,9 C 84 % 1018,9 hPa 0,0 l/m 0 min 0 min 19 W/m 3,2 km/h (1 Bft) 97,87 %
28.07.2022 06:26 12,6 C 12,2 C 8,9 C 84 % 1018,9 hPa 0,0 l/m 0 min 0 min 21 W/m 3,2 km/h (1 Bft) 100,00 %
28.07.2022 06:28 12,6 C 12,2 C 8,9 C 84 % 1018,9 hPa 0,0 l/m 0 min 0 min 21 W/m 3,2 km/h (1 Bft) 100,00 %
28.07.2022 06:30 12,6 C 12,2 C 8,9 C 84 % 1018,9 hPa 0,0 l/m 0 min 0 min 21 W/m 3,2 km/h (1 Bft) 100,00 %
28.07.2022 06:32 12,6 C 12,2 C 8,9 C 84 % 1018,9 hPa 0,0 l/m 0 min 0 min 22 W/m 3,2 km/h (1 Bft) 100,00 %
28.07.2022 06:34 12,6 C 12,2 C 8,9 C 84 % 1018,9 hPa 0,0 l/m 0 min 0 min 23 W/m 3,2 km/h (1 Bft) 96,23 %
28.07.2022 06:36 12,6 C 12,2 C 8,9 C 84 % 1018,9 hPa 0,0 l/m 0 min 0 min 23 W/m 3,2 km/h (1 Bft) 95,74 %
28.07.2022 06:38 12,6 C 12,2 C 8,9 C 84 % 1018,9 hPa 0,0 l/m 0 min 0 min 25 W/m 3,2 km/h (1 Bft) 95,74 %
28.07.2022 06:40 12,6 C 12,2 C 8,9 C 84 % 1018,9 hPa 0,0 l/m 0 min 0 min 26 W/m 3,2 km/h (1 Bft) 97,37 %
28.07.2022 06:42 12,6 C 12,2 C 8,9 C 84 % 1018,9 hPa 0,0 l/m 0 min 0 min 26 W/m 3,2 km/h (1 Bft) 95,74 %
28.07.2022 06:44 12,6 C 12,2 C 8,9 C 84 % 1018,9 hPa 0,0 l/m 0 min 0 min 27 W/m 6,4 km/h (2 Bft) 93,48 %
28.07.2022 06:46 12,6 C 12,2 C 8,9 C 84 % 1018,9 hPa 0,0 l/m 0 min 0 min 28 W/m 3,2 km/h (1 Bft) 95,92 %
28.07.2022 06:48 12,6 C 12,2 C 8,9 C 84 % 1018,9 hPa 0,0 l/m 0 min 0 min 31 W/m 3,2 km/h (1 Bft) 95,74 %
28.07.2022 06:50 12,6 C 12,2 C 8,9 C 84 % 1018,9 hPa 0,0 l/m 0 min 0 min 32 W/m 3,2 km/h (1 Bft) 95,74 %
28.07.2022 06:52 12,7 C 12,2 C 8,9 C 85 % 1019,0 hPa 0,0 l/m 0 min 0 min 33 W/m 3,2 km/h (1 Bft) 93,62 %
28.07.2022 06:54 12,7 C 12,2 C 8,9 C 85 % 1019,0 hPa 0,0 l/m 0 min 0 min 33 W/m 3,2 km/h (1 Bft) 95,74 %
28.07.2022 06:56 12,7 C 12,2 C 8,9 C 85 % 1019,0 hPa 0,0 l/m 0 min 0 min 33 W/m 6,4 km/h (2 Bft) 95,74 %
28.07.2022 06:58 12,7 C 12,2 C 8,9 C 85 % 1019,0 hPa 0,0 l/m 0 min 0 min 34 W/m 6,4 km/h (2 Bft) 93,48 %
28.07.2022 07:00 12,7 C 12,2 C 8,9 C 85 % 1018,9 hPa 0,0 l/m 0 min 0 min 36 W/m 6,4 km/h (2 Bft) 97,87 %
28.07.2022 07:02 12,7 C 12,2 C 8,9 C 85 % 1019,0 hPa 0,0 l/m 0 min 0 min 38 W/m 9,7 km/h (2 Bft) 97,87 %
28.07.2022 07:04 12,8 C 12,8 C 9,4 C 85 % 1018,9 hPa 0,0 l/m 0 min 0 min 39 W/m 6,4 km/h (2 Bft) 97,92 %
28.07.2022 07:06 12,8 C 12,8 C 9,4 C 85 % 1019,0 hPa 0,0 l/m 0 min 0 min 39 W/m 6,4 km/h (2 Bft) 95,65 %
28.07.2022 07:08 12,8 C 12,8 C 9,4 C 85 % 1019,0 hPa 0,0 l/m 0 min 0 min 40 W/m 6,4 km/h (2 Bft) 97,87 %
28.07.2022 07:10 12,8 C 12,8 C 9,4 C 85 % 1019,0 hPa 0,0 l/m 0 min 0 min 42 W/m 6,4 km/h (2 Bft) 95,74 %
28.07.2022 07:12 12,9 C 12,8 C 9,4 C 85 % 1019,0 hPa 0,0 l/m 0 min 0 min 42 W/m 12,9 km/h (3 Bft) 97,87 %
28.07.2022 07:14 12,9 C 12,8 C 9,4 C 84 % 1019,0 hPa 0,0 l/m 0 min 0 min 43 W/m 6,4 km/h (2 Bft) 97,87 %
28.07.2022 07:16 13,0 C 12,8 C 9,4 C 84 % 1019,0 hPa 0,0 l/m 0 min 0 min 44 W/m 3,2 km/h (1 Bft) 97,87 %
28.07.2022 07:18 13,1 C 12,8 C 9,4 C 85 % 1019,0 hPa 0,0 l/m 0 min 0 min 46 W/m 16,1 km/h (3 Bft) 97,83 %
28.07.2022 07:20 13,1 C 12,8 C 9,4 C 84 % 1019,0 hPa 0,0 l/m 0 min 0 min 47 W/m 3,2 km/h (1 Bft) 97,87 %
28.07.2022 07:22 13,2 C 12,8 C 9,4 C 84 % 1019,0 hPa 0,0 l/m 0 min 0 min 47 W/m 9,7 km/h (2 Bft) 97,87 %
28.07.2022 07:24 13,2 C 13,3 C 9,4 C 84 % 1019,0 hPa 0,0 l/m 0 min 0 min 47 W/m 6,4 km/h (2 Bft) 97,87 %
28.07.2022 07:26 13,3 C 13,3 C 9,4 C 84 % 1019,1 hPa 0,0 l/m 0 min 0 min 47 W/m 12,9 km/h (3 Bft) 97,87 %
28.07.2022 07:28 13,3 C 13,3 C 9,4 C 83 % 1019,0 hPa 0,0 l/m 0 min 0 min 47 W/m 6,4 km/h (2 Bft) 93,62 %
28.07.2022 07:30 13,4 C 13,3 C 9,4 C 83 % 1019,0 hPa 0,0 l/m 0 min 0 min 47 W/m 9,7 km/h (2 Bft) 95,65 %
28.07.2022 07:32 13,4 C 13,3 C 9,4 C 83 % 1019,0 hPa 0,0 l/m 0 min 0 min 48 W/m 6,4 km/h (2 Bft) 100,00 %
28.07.2022 07:34 13,4 C 13,3 C 9,4 C 83 % 1019,0 hPa 0,0 l/m 0 min 0 min 50 W/m 6,4 km/h (2 Bft) 100,00 %
28.07.2022 07:36 13,5 C 13,3 C 9,4 C 83 % 1019,0 hPa 0,0 l/m 0 min 0 min 53 W/m 6,4 km/h (2 Bft) 97,87 %
28.07.2022 07:38 13,6 C 13,3 C 10,0 C 83 % 1019,0 hPa 0,0 l/m 0 min 0 min 56 W/m 6,4 km/h (2 Bft) 100,00 %
28.07.2022 07:40 13,6 C 13,3 C 10,0 C 83 % 1019,0 hPa 0,0 l/m 0 min 0 min 60 W/m 9,7 km/h (2 Bft) 100,00 %
28.07.2022 07:42 13,7 C 13,3 C 10,0 C 83 % 1019,0 hPa 0,0 l/m 0 min 0 min 62 W/m 6,4 km/h (2 Bft) 100,00 %
28.07.2022 07:44 13,7 C 13,9 C 10,0 C 83 % 1019,0 hPa 0,0 l/m 0 min 0 min 65 W/m 9,7 km/h (2 Bft) 97,83 %
28.07.2022 07:46 13,8 C 13,9 C 10,0 C 83 % 1019,0 hPa 0,0 l/m 0 min 0 min 69 W/m 6,4 km/h (2 Bft) 100,00 %
28.07.2022 07:48 13,8 C 13,9 C 10,0 C 83 % 1019,0 hPa 0,0 l/m 0 min 0 min 77 W/m 6,4 km/h (2 Bft) 100,00 %
28.07.2022 07:50 13,9 C 13,9 C 10,0 C 83 % 1018,9 hPa 0,0 l/m 0 min 0 min 87 W/m 9,7 km/h (2 Bft) 100,00 %
28.07.2022 07:52 13,9 C 13,9 C 10,6 C 82 % 1019,0 hPa 0,0 l/m 0 min 0 min 101 W/m 12,9 km/h (3 Bft) 97,87 %
28.07.2022 07:54 14,0 C 13,9 C 10,6 C 82 % 1019,0 hPa 0,0 l/m 0 min 0 min 115 W/m 9,7 km/h (2 Bft) 100,00 %
28.07.2022 07:56 14,1 C 14,4 C 10,6 C 82 % 1019,0 hPa 0,0 l/m 0 min 0 min 123 W/m 9,7 km/h (2 Bft) 97,83 %
28.07.2022 07:58 14,1 C 14,4 C 10,6 C 82 % 1018,9 hPa 0,0 l/m 0 min 0 min 123 W/m 9,7 km/h (2 Bft) 100,00 %
28.07.2022 08:00 14,2 C 14,4 C 10,6 C 82 % 1018,9 hPa 0,0 l/m 0 min 0 min 121 W/m 6,4 km/h (2 Bft) 97,87 %
28.07.2022 08:02 14,3 C 14,4 C 10,6 C 82 % 1018,9 hPa 0,0 l/m 0 min 0 min 118 W/m 9,7 km/h (2 Bft) 97,87 %
28.07.2022 08:04 14,3 C 14,4 C 10,6 C 82 % 1018,9 hPa 0,0 l/m 0 min 0 min 120 W/m 6,4 km/h (2 Bft) 95,74 %
28.07.2022 08:06 14,3 C 14,4 C 10,6 C 82 % 1018,9 hPa 0,0 l/m 0 min 0 min 120 W/m 3,2 km/h (1 Bft) 97,87 %
28.07.2022 08:08 14,4 C 14,4 C 11,1 C 82 % 1018,9 hPa 0,0 l/m 0 min 0 min 122 W/m 16,1 km/h (3 Bft) 97,83 %
28.07.2022 08:10 14,4 C 14,4 C 11,1 C 81 % 1018,9 hPa 0,0 l/m 0 min 0 min 130 W/m 6,4 km/h (2 Bft) 95,74 %
28.07.2022 08:12 14,5 C 15,0 C 11,1 C 81 % 1018,9 hPa 0,0 l/m 0 min 0 min 142 W/m 12,9 km/h (3 Bft) 95,74 %
28.07.2022 08:14 14,6 C 14,4 C 11,1 C 80 % 1018,9 hPa 0,0 l/m 0 min 0 min 156 W/m 16,1 km/h (3 Bft) 97,87 %
28.07.2022 08:16 14,6 C 15,0 C 11,1 C 80 % 1018,9 hPa 0,0 l/m 2 min 0 min 169 W/m 6,4 km/h (2 Bft) 97,87 %
28.07.2022 08:18 14,6 C 15,0 C 11,1 C 80 % 1018,9 hPa 0,0 l/m 2 min 0 min 170 W/m 12,9 km/h (3 Bft) 97,87 %
28.07.2022 08:20 14,7 C 15,0 C 11,1 C 80 % 1018,9 hPa 0,0 l/m 0 min 0 min 171 W/m 16,1 km/h (3 Bft) 93,48 %
28.07.2022 08:22 14,7 C 15,0 C 11,1 C 80 % 1018,9 hPa 0,0 l/m 2 min 0 min 209 W/m 16,1 km/h (3 Bft) 95,74 %
28.07.2022 08:24 14,8 C 15,0 C 11,1 C 79 % 1018,9 hPa 0,0 l/m 0 min 0 min 173 W/m 16,1 km/h (3 Bft) 95,74 %
28.07.2022 08:26 14,9 C 15,6 C 11,1 C 79 % 1019,0 hPa 0,0 l/m 2 min 0 min 232 W/m 9,7 km/h (2 Bft) 95,74 %
28.07.2022 08:28 14,9 C 15,6 C 11,1 C 79 % 1019,0 hPa 0,0 l/m 2 min 0 min 246 W/m 12,9 km/h (3 Bft) 95,74 %
28.07.2022 08:30 15,1 C 16,1 C 11,7 C 79 % 1019,0 hPa 0,0 l/m 2 min 0 min 200 W/m 9,7 km/h (2 Bft) 95,74 %
28.07.2022 08:32 15,2 C 16,1 C 11,7 C 79 % 1019,0 hPa 0,0 l/m 2 min 0 min 193 W/m 9,7 km/h (2 Bft) 95,65 %
28.07.2022 08:34 15,3 C 16,1 C 11,7 C 79 % 1019,0 hPa 0,0 l/m 2 min 0 min 191 W/m 6,4 km/h (2 Bft) 95,74 %
28.07.2022 08:36 15,3 C 16,7 C 11,7 C 78 % 1019,0 hPa 0,0 l/m 2 min 0 min 303 W/m 6,4 km/h (2 Bft) 93,62 %
28.07.2022 08:38 15,4 C 16,7 C 11,7 C 78 % 1019,0 hPa 0,0 l/m 0 min 0 min 177 W/m 12,9 km/h (3 Bft) 95,74 %
28.07.2022 08:40 15,5 C 16,7 C 11,7 C 78 % 1018,9 hPa 0,0 l/m 0 min 0 min 179 W/m 12,9 km/h (3 Bft) 95,74 %
28.07.2022 08:42 15,6 C 16,7 C 11,7 C 77 % 1018,9 hPa 0,0 l/m 0 min 0 min 191 W/m 12,9 km/h (3 Bft) 95,74 %
28.07.2022 08:44 15,6 C 16,7 C 11,7 C 77 % 1019,0 hPa 0,0 l/m 2 min 0 min 216 W/m 9,7 km/h (2 Bft) 95,65 %
28.07.2022 08:46 15,7 C 17,2 C 12,2 C 77 % 1018,9 hPa 0,0 l/m 2 min 0 min 316 W/m 9,7 km/h (2 Bft) 95,74 %
28.07.2022 08:48 15,8 C 17,2 C 12,2 C 77 % 1018,9 hPa 0,0 l/m 2 min 0 min 235 W/m 12,9 km/h (3 Bft) 95,74 %
28.07.2022 08:50 15,8 C 17,2 C 12,2 C 77 % 1018,9 hPa 0,0 l/m 2 min 0 min 251 W/m 16,1 km/h (3 Bft) 93,62 %
28.07.2022 08:52 15,9 C 17,2 C 12,2 C 76 % 1018,8 hPa 0,0 l/m 2 min 0 min 341 W/m 16,1 km/h (3 Bft) 95,74 %
28.07.2022 08:54 16,0 C 17,2 C 12,2 C 76 % 1018,8 hPa 0,0 l/m 2 min 0 min 241 W/m 12,9 km/h (3 Bft) 97,87 %
28.07.2022 08:56 16,1 C 17,2 C 12,2 C 76 % 1018,9 hPa 0,0 l/m 2 min 0 min 233 W/m 19,3 km/h (3 Bft) 97,83 %
28.07.2022 08:58 16,1 C 17,2 C 12,8 C 76 % 1018,9 hPa 0,0 l/m 2 min 0 min 231 W/m 12,9 km/h (3 Bft) 100,00 %
28.07.2022 09:00 16,2 C 17,8 C 12,8 C 76 % 1018,9 hPa 0,0 l/m 2 min 0 min 279 W/m 9,7 km/h (2 Bft) 100,00 %
28.07.2022 09:02 16,3 C 18,9 C 12,8 C 76 % 1018,9 hPa 0,0 l/m 2 min 0 min 343 W/m 6,4 km/h (2 Bft) 97,87 %
28.07.2022 09:04 16,4 C 19,4 C 13,3 C 76 % 1018,9 hPa 0,0 l/m 2 min 0 min 373 W/m 9,7 km/h (2 Bft) 100,00 %
28.07.2022 09:06 16,7 C 20,0 C 13,3 C 75 % 1018,9 hPa 0,0 l/m 2 min 0 min 436 W/m 12,9 km/h (3 Bft) 100,00 %
28.07.2022 09:08 16,8 C 20,6 C 13,9 C 75 % 1018,9 hPa 0,0 l/m 2 min 0 min 496 W/m 9,7 km/h (2 Bft) 100,00 %
28.07.2022 09:10 16,9 C 20,6 C 13,9 C 74 % 1018,8 hPa 0,0 l/m 2 min 0 min 429 W/m 16,1 km/h (3 Bft) 100,00 %
28.07.2022 09:12 17,1 C 20,0 C 13,9 C 74 % 1018,8 hPa 0,0 l/m 2 min 0 min 302 W/m 9,7 km/h (2 Bft) 100,00 %
28.07.2022 09:14 17,1 C 20,0 C 13,9 C 73 % 1018,8 hPa 0,0 l/m 2 min 0 min 241 W/m 12,9 km/h (3 Bft) 100,00 %
28.07.2022 09:16 17,2 C 19,4 C 13,9 C 72 % 1018,8 hPa 0,0 l/m 2 min 0 min 253 W/m 12,9 km/h (3 Bft) 100,00 %
28.07.2022 09:18 17,2 C 18,9 C 13,9 C 73 % 1018,8 hPa 0,0 l/m 0 min 0 min 220 W/m 9,7 km/h (2 Bft) 100,00 %
28.07.2022 09:20 17,2 C 18,3 C 13,9 C 72 % 1018,8 hPa 0,0 l/m 0 min 0 min 193 W/m 9,7 km/h (2 Bft) 100,00 %
28.07.2022 09:22 17,3 C 18,3 C 13,3 C 73 % 1018,7 hPa 0,0 l/m 0 min 0 min 186 W/m 12,9 km/h (3 Bft) 100,00 %
28.07.2022 09:24 17,3 C 17,8 C 13,3 C 72 % 1018,8 hPa 0,0 l/m 0 min 0 min 183 W/m 16,1 km/h (3 Bft) 97,87 %
28.07.2022 09:26 17,2 C 18,3 C 13,3 C 72 % 1018,8 hPa 0,0 l/m 0 min 0 min 186 W/m 9,7 km/h (2 Bft) 97,87 %
28.07.2022 09:28 17,2 C 18,3 C 13,3 C 72 % 1018,8 hPa 0,0 l/m 0 min 0 min 189 W/m 9,7 km/h (2 Bft) 95,74 %
28.07.2022 09:30 17,2 C 18,3 C 13,3 C 72 % 1018,8 hPa 0,0 l/m 0 min 0 min 230 W/m 9,7 km/h (2 Bft) 97,83 %
28.07.2022 09:32 17,2 C 19,4 C 13,9 C 72 % 1018,8 hPa 0,0 l/m 2 min 0 min 465 W/m 9,7 km/h (2 Bft) 97,87 %
28.07.2022 09:34 17,3 C 19,4 C 13,9 C 72 % 1018,8 hPa 0,0 l/m 0 min 0 min 252 W/m 9,7 km/h (2 Bft) 97,87 %
28.07.2022 09:36 17,3 C 18,9 C 13,9 C 72 % 1018,8 hPa 0,0 l/m 0 min 0 min 182 W/m 9,7 km/h (2 Bft) 97,87 %
28.07.2022 09:38 17,4 C 19,4 C 13,9 C 72 % 1018,8 hPa 0,0 l/m 0 min 0 min 251 W/m 12,9 km/h (3 Bft) 97,87 %
28.07.2022 09:40 17,4 C 20,6 C 14,4 C 72 % 1018,8 hPa 0,0 l/m 2 min 0 min 450 W/m 12,9 km/h (3 Bft) 97,87 %
28.07.2022 09:42 17,6 C 21,7 C 15,0 C 72 % 1018,8 hPa 0,0 l/m 2 min 0 min 597 W/m 12,9 km/h (3 Bft) 97,83 %
28.07.2022 09:44 17,7 C 22,2 C 15,6 C 72 % 1018,8 hPa 0,0 l/m 2 min 0 min 640 W/m 16,1 km/h (3 Bft) 97,87 %
28.07.2022 09:46 17,9 C 22,2 C 15,6 C 71 % 1018,8 hPa 0,0 l/m 2 min 0 min 552 W/m 16,1 km/h (3 Bft) 95,74 %
28.07.2022 09:48 18,1 C 22,2 C 15,6 C 71 % 1018,8 hPa 0,0 l/m 2 min 0 min 477 W/m 12,9 km/h (3 Bft) 97,87 %
28.07.2022 09:50 18,2 C 23,3 C 15,6 C 70 % 1018,8 hPa 0,0 l/m 2 min 0 min 658 W/m 6,4 km/h (2 Bft) 95,74 %
28.07.2022 09:52 18,4 C 23,3 C 15,6 C 70 % 1018,8 hPa 0,0 l/m 2 min 0 min 663 W/m 12,9 km/h (3 Bft) 97,87 %
28.07.2022 09:54 18,7 C 23,9 C 16,1 C 70 % 1018,7 hPa 0,0 l/m 2 min 0 min 674 W/m 12,9 km/h (3 Bft) 97,83 %
28.07.2022 09:56 18,9 C 25,0 C 16,1 C 69 % 1018,7 hPa 0,0 l/m 2 min 0 min 680 W/m 9,7 km/h (2 Bft) 97,87 %
28.07.2022 09:58 19,1 C 24,4 C 16,1 C 68 % 1018,7 hPa 0,0 l/m 2 min 0 min 677 W/m 16,1 km/h (3 Bft) 97,87 %
28.07.2022 10:00 19,2 C 25,0 C 16,1 C 68 % 1018,7 hPa 0,0 l/m 2 min 0 min 674 W/m 6,4 km/h (2 Bft) 97,87 %
28.07.2022 10:02 19,4 C 25,0 C 16,1 C 67 % 1018,7 hPa 0,0 l/m 2 min 0 min 706 W/m 16,1 km/h (3 Bft) 95,74 %
28.07.2022 10:04 19,5 C 25,0 C 16,1 C 67 % 1018,7 hPa 0,0 l/m 2 min 0 min 671 W/m 12,9 km/h (3 Bft) 95,74 %
28.07.2022 10:06 19,6 C 24,4 C 15,6 C 66 % 1018,6 hPa 0,0 l/m 2 min 0 min 542 W/m 16,1 km/h (3 Bft) 97,83 %
28.07.2022 10:08 19,6 C 23,9 C 15,6 C 66 % 1018,7 hPa 0,0 l/m 2 min 0 min 574 W/m 12,9 km/h (3 Bft) 93,62 %
28.07.2022 10:10 19,7 C 24,4 C 15,6 C 66 % 1018,6 hPa 0,0 l/m 2 min 0 min 718 W/m 12,9 km/h (3 Bft) 97,87 %
28.07.2022 10:12 19,7 C 24,4 C 15,6 C 66 % 1018,6 hPa 0,0 l/m 2 min 0 min 770 W/m 12,9 km/h (3 Bft) 100,00 %
28.07.2022 10:14 19,8 C 23,9 C 15,6 C 66 % 1018,6 hPa 0,0 l/m 2 min 0 min 560 W/m 12,9 km/h (3 Bft) 100,00 %
28.07.2022 10:16 19,8 C 23,9 C 15,6 C 66 % 1018,6 hPa 0,0 l/m 2 min 0 min 556 W/m 9,7 km/h (2 Bft) 97,87 %
28.07.2022 10:18 19,8 C 23,9 C 15,6 C 66 % 1018,6 hPa 0,0 l/m 2 min 0 min 705 W/m 9,7 km/h (2 Bft) 100,00 %
28.07.2022 10:20 19,9 C 23,9 C 15,6 C 66 % 1018,6 hPa 0,0 l/m 2 min 0 min 800 W/m 9,7 km/h (2 Bft) 100,00 %
28.07.2022 10:22 20,0 C 23,3 C 16,1 C 66 % 1018,5 hPa 0,0 l/m 2 min 0 min 569 W/m 6,4 km/h (2 Bft) 97,87 %
28.07.2022 10:24 20,0 C 22,8 C 16,1 C 65 % 1018,5 hPa 0,0 l/m 2 min 0 min 810 W/m 16,1 km/h (3 Bft) 97,87 %
28.07.2022 10:26 20,0 C 22,2 C 16,1 C 64 % 1018,5 hPa 0,0 l/m 2 min 0 min 746 W/m 19,3 km/h (3 Bft) 97,87 %
28.07.2022 10:28 20,0 C 21,7 C 16,1 C 64 % 1018,5 hPa 0,0 l/m 2 min 0 min 568 W/m 19,3 km/h (3 Bft) 97,87 %
28.07.2022 10:30 20,1 C 21,1 C 16,1 C 64 % 1018,5 hPa 0,0 l/m 2 min 0 min 751 W/m 12,9 km/h (3 Bft) 97,83 %
28.07.2022 10:32 20,0 C 20,6 C 15,6 C 64 % 1018,5 hPa 0,0 l/m 2 min 0 min 747 W/m 16,1 km/h (3 Bft) 95,74 %
28.07.2022 10:34 20,0 C 20,6 C 15,6 C 64 % 1018,5 hPa 0,0 l/m 2 min 0 min 748 W/m 16,1 km/h (3 Bft) 97,87 %
28.07.2022 10:36 20,0 C 20,6 C 15,6 C 64 % 1018,4 hPa 0,0 l/m 2 min 0 min 722 W/m 16,1 km/h (3 Bft) 97,87 %
28.07.2022 10:38 20,0 C 20,6 C 16,1 C 64 % 1018,4 hPa 0,0 l/m 2 min 0 min 682 W/m 16,1 km/h (3 Bft) 95,74 %
28.07.2022 10:40 20,1 C 20,6 C 15,6 C 63 % 1018,4 hPa 0,0 l/m 2 min 0 min 740 W/m 19,3 km/h (3 Bft) 97,87 %
28.07.2022 10:42 20,1 C 20,6 C 16,1 C 64 % 1018,4 hPa 0,0 l/m 2 min 0 min 727 W/m 12,9 km/h (3 Bft) 97,83 %
28.07.2022 10:44 20,1 C 20,6 C 16,1 C 64 % 1018,4 hPa 0,0 l/m 2 min 0 min 740 W/m 16,1 km/h (3 Bft) 97,87 %
28.07.2022 10:46 20,2 C 20,6 C 16,1 C 63 % 1018,4 hPa 0,0 l/m 2 min 0 min 737 W/m 16,1 km/h (3 Bft) 95,74 %
28.07.2022 10:48 20,2 C 20,6 C 16,7 C 62 % 1018,3 hPa 0,0 l/m 2 min 0 min 732 W/m 12,9 km/h (3 Bft) 95,74 %
28.07.2022 10:50 20,3 C 20,6 C 17,2 C 62 % 1018,4 hPa 0,0 l/m 2 min 0 min 733 W/m 19,3 km/h (3 Bft) 97,87 %
28.07.2022 10:52 20,3 C 20,6 C 17,2 C 63 % 1018,3 hPa 0,0 l/m 2 min 0 min 734 W/m 19,3 km/h (3 Bft) 97,87 %
28.07.2022 10:54 20,4 C 21,1 C 17,2 C 62 % 1018,3 hPa 0,0 l/m 2 min 0 min 736 W/m 16,1 km/h (3 Bft) 97,83 %
28.07.2022 10:56 20,5 C 21,1 C 16,7 C 62 % 1018,3 hPa 0,0 l/m 2 min 0 min 738 W/m 16,1 km/h (3 Bft) 97,87 %
28.07.2022 10:58 20,6 C 21,1 C 17,2 C 62 % 1018,3 hPa 0,0 l/m 2 min 0 min 742 W/m 9,7 km/h (2 Bft) 100,00 %
28.07.2022 11:00 20,6 C 21,7 C 17,2 C 62 % 1018,3 hPa 0,0 l/m 2 min 0 min 744 W/m 19,3 km/h (3 Bft) 100,00 %
28.07.2022 11:02 20,7 C 22,2 C 17,2 C 62 % 1018,3 hPa 0,0 l/m 2 min 0 min 750 W/m 12,9 km/h (3 Bft) 100,00 %
28.07.2022 11:04 20,7 C 22,2 C 17,2 C 61 % 1018,3 hPa 0,0 l/m 2 min 0 min 751 W/m 12,9 km/h (3 Bft) 100,00 %
28.07.2022 11:06 20,8 C 22,8 C 16,7 C 61 % 1018,2 hPa 0,0 l/m 2 min 0 min 747 W/m 12,9 km/h (3 Bft) 97,83 %
28.07.2022 11:08 20,8 C 23,3 C 16,7 C 62 % 1018,3 hPa 0,0 l/m 2 min 0 min 757 W/m 12,9 km/h (3 Bft) 100,00 %
28.07.2022 11:10 20,9 C 23,3 C 16,7 C 61 % 1018,4 hPa 0,0 l/m 2 min 0 min 757 W/m 12,9 km/h (3 Bft) 100,00 %
28.07.2022 11:12 20,9 C 23,9 C 16,7 C 61 % 1018,4 hPa 0,0 l/m 2 min 0 min 765 W/m 9,7 km/h (2 Bft) 100,00 %
28.07.2022 11:14 21,0 C 23,3 C 16,7 C 59 % 1018,4 hPa 0,0 l/m 2 min 0 min 760 W/m 12,9 km/h (3 Bft) 100,00 %
28.07.2022 11:16 21,0 C 22,8 C 16,7 C 60 % 1018,4 hPa 0,0 l/m 2 min 0 min 737 W/m 32,2 km/h (5 Bft) 100,00 %
28.07.2022 11:18 21,0 C 22,8 C 16,7 C 60 % 1018,3 hPa 0,0 l/m 2 min 0 min 742 W/m 16,1 km/h (3 Bft) 100,00 %
28.07.2022 11:20 21,1 C 22,8 C 16,7 C 60 % 1018,3 hPa 0,0 l/m 2 min 0 min 719 W/m 12,9 km/h (3 Bft) 100,00 %
28.07.2022 11:22 21,1 C 22,8 C 16,7 C 60 % 1018,3 hPa 0,0 l/m 2 min 0 min 727 W/m 16,1 km/h (3 Bft) 100,00 %
28.07.2022 11:24 21,1 C 22,2 C 16,7 C 60 % 1018,3 hPa 0,0 l/m 2 min 0 min 736 W/m 9,7 km/h (2 Bft) 100,00 %
28.07.2022 11:26 21,1 C 22,8 C 16,7 C 60 % 1018,3 hPa 0,0 l/m 2 min 0 min 750 W/m 9,7 km/h (2 Bft) 97,87 %
28.07.2022 11:28 21,2 C 22,8 C 16,7 C 59 % 1018,3 hPa 0,0 l/m 2 min 0 min 782 W/m 19,3 km/h (3 Bft) 100,00 %
28.07.2022 11:30 21,2 C 22,8 C 16,7 C 59 % 1018,3 hPa 0,0 l/m 2 min 0 min 766 W/m 12,9 km/h (3 Bft) 100,00 %
28.07.2022 11:32 21,2 C 22,8 C 16,7 C 59 % 1018,3 hPa 0,0 l/m 2 min 0 min 787 W/m 12,9 km/h (3 Bft) 100,00 %
28.07.2022 11:34 21,3 C 23,3 C 17,2 C 60 % 1018,3 hPa 0,0 l/m 2 min 0 min 794 W/m 12,9 km/h (3 Bft) 95,74 %
28.07.2022 11:36 21,5 C 23,9 C 17,2 C 60 % 1018,3 hPa 0,0 l/m 2 min 0 min 774 W/m 12,9 km/h (3 Bft) 100,00 %
28.07.2022 11:38 21,6 C 23,9 C 17,2 C 58 % 1018,4 hPa 0,0 l/m 2 min 0 min 773 W/m 19,3 km/h (3 Bft) 100,00 %
28.07.2022 11:40 21,6 C 23,9 C 17,2 C 58 % 1018,3 hPa 0,0 l/m 2 min 0 min 752 W/m 6,4 km/h (2 Bft) 100,00 %
28.07.2022 11:42 21,7 C 24,4 C 17,8 C 59 % 1018,3 hPa 0,0 l/m 2 min 0 min 715 W/m 12,9 km/h (3 Bft) 100,00 %
28.07.2022 11:44 21,8 C 24,4 C 17,8 C 58 % 1018,2 hPa 0,0 l/m 2 min 0 min 745 W/m 16,1 km/h (3 Bft) 97,87 %
28.07.2022 11:46 21,8 C 24,4 C 17,8 C 58 % 1018,2 hPa 0,0 l/m 2 min 0 min 764 W/m 19,3 km/h (3 Bft) 100,00 %
28.07.2022 11:48 21,8 C 23,9 C 17,8 C 58 % 1018,2 hPa 0,0 l/m 2 min 0 min 781 W/m 25,7 km/h (4 Bft) 100,00 %
28.07.2022 11:50 21,9 C 25,0 C 17,8 C 58 % 1018,2 hPa 0,0 l/m 2 min 0 min 788 W/m 9,7 km/h (2 Bft) 97,87 %
28.07.2022 11:52 22,0 C 24,4 C 18,3 C 57 % 1018,2 hPa 0,0 l/m 2 min 0 min 794 W/m 22,5 km/h (4 Bft) 100,00 %
28.07.2022 11:54 22,0 C 23,9 C 18,3 C 56 % 1018,2 hPa 0,0 l/m 2 min 0 min 802 W/m 12,9 km/h (3 Bft) 97,87 %
28.07.2022 11:56 22,1 C 24,4 C 18,3 C 58 % 1018,1 hPa 0,0 l/m 2 min 0 min 782 W/m 12,9 km/h (3 Bft) 95,74 %
28.07.2022 11:58 22,1 C 23,9 C 18,3 C 57 % 1018,0 hPa 0,0 l/m 2 min 0 min 756 W/m 12,9 km/h (3 Bft) 95,74 %
28.07.2022 12:00 22,1 C 24,4 C 18,3 C 57 % 1018,0 hPa 0,0 l/m 2 min 0 min 777 W/m 12,9 km/h (3 Bft) 95,74 %
28.07.2022 12:02 22,1 C 24,4 C 18,3 C 57 % 1018,0 hPa 0,0 l/m 2 min 0 min 754 W/m 12,9 km/h (3 Bft) 93,62 %
28.07.2022 12:04 22,2 C 24,4 C 18,3 C 57 % 1018,0 hPa 0,0 l/m 2 min 0 min 778 W/m 29,0 km/h (5 Bft) 93,48 %
28.07.2022 12:08 22,3 C 24,4 C 18,3 C 56 % 1017,9 hPa 0,0 l/m 4 min 0 min 793 W/m 19,3 km/h (3 Bft) 94,68 %
28.07.2022 12:10 22,4 C 25,0 C 18,9 C 56 % 1017,9 hPa 0,0 l/m 2 min 0 min 808 W/m 12,9 km/h (3 Bft) 93,62 %
28.07.2022 12:12 22,4 C 25,0 C 18,9 C 56 % 1018,0 hPa 0,0 l/m 2 min 0 min 790 W/m 9,7 km/h (2 Bft) 95,74 %
28.07.2022 12:14 22,5 C 25,6 C 20,0 C 56 % 1018,0 hPa 0,0 l/m 2 min 0 min 811 W/m 12,9 km/h (3 Bft) 95,74 %
28.07.2022 12:16 22,6 C 25,6 C 20,0 C 55 % 1018,0 hPa 0,0 l/m 2 min 0 min 791 W/m 6,4 km/h (2 Bft) 93,62 %
28.07.2022 12:18 22,7 C 25,0 C 20,6 C 53 % 1018,0 hPa 0,0 l/m 2 min 0 min 805 W/m 19,3 km/h (3 Bft) 93,48 %
28.07.2022 12:20 22,7 C 25,6 C 21,1 C 54 % 1017,9 hPa 0,0 l/m 2 min 0 min 827 W/m 16,1 km/h (3 Bft) 93,62 %
28.07.2022 12:22 22,7 C 25,0 C 21,7 C 53 % 1017,9 hPa 0,0 l/m 2 min 0 min 853 W/m 16,1 km/h (3 Bft) 93,62 %
28.07.2022 12:24 22,7 C 25,0 C 22,8 C 54 % 1017,8 hPa 0,0 l/m 2 min 0 min 848 W/m 12,9 km/h (3 Bft) 93,62 %
28.07.2022 12:26 22,7 C 25,0 C 22,8 C 54 % 1017,9 hPa 0,0 l/m 2 min 0 min 850 W/m 19,3 km/h (3 Bft) 95,74 %
28.07.2022 12:28 22,7 C 25,0 C 22,8 C 54 % 1017,8 hPa 0,0 l/m 2 min 0 min 836 W/m 12,9 km/h (3 Bft) 93,62 %
28.07.2022 12:30 22,7 C 25,0 C 23,3 C 54 % 1017,8 hPa 0,0 l/m 2 min 0 min 846 W/m 12,9 km/h (3 Bft) 93,48 %
28.07.2022 12:32 22,7 C 25,0 C 23,3 C 53 % 1017,8 hPa 0,0 l/m 2 min 0 min 865 W/m 25,7 km/h (4 Bft) 91,49 %
28.07.2022 12:34 22,7 C 25,0 C 23,9 C 54 % 1017,7 hPa 0,0 l/m 2 min 0 min 858 W/m 12,9 km/h (3 Bft) 91,49 %
28.07.2022 12:36 22,8 C 25,6 C 23,9 C 54 % 1017,7 hPa 0,0 l/m 2 min 0 min 832 W/m 12,9 km/h (3 Bft) 91,49 %
28.07.2022 12:38 22,9 C 25,6 C 23,9 C 55 % 1017,6 hPa 0,0 l/m 2 min 0 min 834 W/m 16,1 km/h (3 Bft) 93,62 %
28.07.2022 12:40 23,1 C 25,6 C 23,9 C 54 % 1017,6 hPa 0,0 l/m 2 min 0 min 872 W/m 22,5 km/h (4 Bft) 97,87 %
28.07.2022 12:42 23,1 C 25,6 C 24,4 C 54 % 1017,7 hPa 0,0 l/m 2 min 0 min 894 W/m 12,9 km/h (3 Bft) 95,65 %
28.07.2022 12:44 23,3 C 25,6 C 24,4 C 54 % 1017,7 hPa 0,0 l/m 2 min 0 min 881 W/m 9,7 km/h (2 Bft) 95,74 %
28.07.2022 12:46 23,4 C 26,1 C 23,9 C 53 % 1017,7 hPa 0,0 l/m 2 min 0 min 832 W/m 12,9 km/h (3 Bft) 95,74 %
28.07.2022 12:48 23,5 C 26,1 C 23,9 C 52 % 1017,7 hPa 0,0 l/m 2 min 0 min 836 W/m 6,4 km/h (2 Bft) 95,74 %
28.07.2022 12:50 23,6 C 25,6 C 23,3 C 52 % 1017,6 hPa 0,0 l/m 2 min 0 min 843 W/m 12,9 km/h (3 Bft) 95,74 %
28.07.2022 12:52 23,6 C 25,6 C 22,2 C 52 % 1017,6 hPa 0,0 l/m 2 min 0 min 871 W/m 25,7 km/h (4 Bft) 95,74 %
28.07.2022 12:54 23,5 C 25,0 C 21,7 C 52 % 1017,6 hPa 0,0 l/m 2 min 0 min 866 W/m 22,5 km/h (4 Bft) 95,65 %
28.07.2022 12:56 23,5 C 25,0 C 20,6 C 52 % 1017,6 hPa 0,0 l/m 2 min 0 min 860 W/m 16,1 km/h (3 Bft) 95,74 %
28.07.2022 12:58 23,5 C 25,6 C 20,0 C 53 % 1017,6 hPa 0,0 l/m 2 min 0 min 843 W/m 22,5 km/h (4 Bft) 97,87 %
28.07.2022 13:00 23,5 C 24,4 C 20,0 C 52 % 1017,6 hPa 0,0 l/m 2 min 0 min 902 W/m 19,3 km/h (3 Bft) 97,87 %
28.07.2022 13:02 23,5 C 24,4 C 20,0 C 53 % 1017,5 hPa 0,0 l/m 2 min 0 min 853 W/m 16,1 km/h (3 Bft) 95,74 %
28.07.2022 13:04 23,5 C 25,0 C 19,4 C 53 % 1017,6 hPa 0,0 l/m 2 min 0 min 868 W/m 12,9 km/h (3 Bft) 100,00 %
28.07.2022 13:06 23,6 C 25,6 C 19,4 C 53 % 1017,5 hPa 0,0 l/m 2 min 0 min 884 W/m 9,7 km/h (2 Bft) 100,00 %
28.07.2022 13:08 23,6 C 25,6 C 19,4 C 52 % 1017,5 hPa 0,0 l/m 2 min 0 min 853 W/m 16,1 km/h (3 Bft) 97,87 %
28.07.2022 13:10 23,7 C 25,0 C 19,4 C 52 % 1017,6 hPa 0,0 l/m 2 min 0 min 901 W/m 22,5 km/h (4 Bft) 100,00 %
28.07.2022 13:12 23,7 C 25,6 C 19,4 C 52 % 1017,5 hPa 0,0 l/m 2 min 0 min 864 W/m 16,1 km/h (3 Bft) 100,00 %
28.07.2022 13:14 23,7 C 25,6 C 19,4 C 52 % 1017,5 hPa 0,0 l/m 2 min 0 min 870 W/m 16,1 km/h (3 Bft) 100,00 %
28.07.2022 13:16 23,8 C 25,6 C 19,4 C 52 % 1017,5 hPa 0,0 l/m 2 min 0 min 892 W/m 22,5 km/h (4 Bft) 100,00 %
28.07.2022 13:18 23,7 C 25,0 C 19,4 C 51 % 1017,4 hPa 0,0 l/m 2 min 0 min 834 W/m 12,9 km/h (3 Bft) 100,00 %
28.07.2022 13:20 23,7 C 25,0 C 19,4 C 50 % 1017,5 hPa 0,0 l/m 2 min 0 min 756 W/m 12,9 km/h (3 Bft) 100,00 %
28.07.2022 13:22 23,7 C 25,0 C 19,4 C 52 % 1017,5 hPa 0,0 l/m 2 min 0 min 709 W/m 19,3 km/h (3 Bft) 100,00 %
28.07.2022 13:24 23,7 C 25,0 C 19,4 C 52 % 1017,4 hPa 0,0 l/m 2 min 0 min 671 W/m 16,1 km/h (3 Bft) 100,00 %
28.07.2022 13:26 23,8 C 25,0 C 19,4 C 53 % 1017,4 hPa 0,0 l/m 2 min 0 min 777 W/m 19,3 km/h (3 Bft) 97,87 %
28.07.2022 13:28 23,9 C 25,0 C 19,4 C 52 % 1017,4 hPa 0,0 l/m 2 min 0 min 843 W/m 12,9 km/h (3 Bft) 100,00 %
28.07.2022 13:30 23,9 C 25,6 C 19,4 C 51 % 1017,4 hPa 0,0 l/m 2 min 0 min 856 W/m 16,1 km/h (3 Bft) 100,00 %
28.07.2022 13:32 24,0 C 25,6 C 19,4 C 52 % 1017,5 hPa 0,0 l/m 2 min 0 min 826 W/m 9,7 km/h (2 Bft) 100,00 %
28.07.2022 13:34 24,1 C 26,1 C 20,0 C 51 % 1017,5 hPa 0,0 l/m 2 min 0 min 856 W/m 9,7 km/h (2 Bft) 100,00 %
28.07.2022 13:36 24,1 C 26,7 C 20,0 C 50 % 1017,4 hPa 0,0 l/m 2 min 0 min 860 W/m 12,9 km/h (3 Bft) 98,31 %
28.07.2022 13:38 24,2 C 26,1 C 20,0 C 50 % 1017,4 hPa 0,0 l/m 2 min 0 min 808 W/m 12,9 km/h (3 Bft) 100,00 %
28.07.2022 13:40 24,2 C 26,1 C 20,0 C 50 % 1017,4 hPa 0,0 l/m 2 min 0 min 786 W/m 12,9 km/h (3 Bft) 100,00 %
28.07.2022 13:42 24,3 C 26,7 C 20,0 C 50 % 1017,3 hPa 0,0 l/m 2 min 0 min 838 W/m 12,9 km/h (3 Bft) 97,87 %
28.07.2022 13:44 24,2 C 26,1 C 20,0 C 49 % 1017,3 hPa 0,0 l/m 2 min 0 min 794 W/m 19,3 km/h (3 Bft) 100,00 %
28.07.2022 13:46 24,3 C 26,1 C 20,0 C 50 % 1017,3 hPa 0,0 l/m 2 min 0 min 773 W/m 12,9 km/h (3 Bft) 100,00 %
28.07.2022 13:48 24,3 C 26,1 C 20,0 C 50 % 1017,3 hPa 0,0 l/m 2 min 0 min 684 W/m 12,9 km/h (3 Bft) 100,00 %
28.07.2022 13:50 24,3 C 26,1 C 20,6 C 49 % 1017,3 hPa 0,0 l/m 2 min 0 min 672 W/m 6,4 km/h (2 Bft) 100,00 %
28.07.2022 13:52 24,3 C 26,1 C 20,6 C 50 % 1017,3 hPa 0,0 l/m 2 min 0 min 632 W/m 6,4 km/h (2 Bft) 100,00 %
28.07.2022 13:54 24,3 C 26,1 C 20,6 C 50 % 1017,3 hPa 0,0 l/m 2 min 0 min 641 W/m 12,9 km/h (3 Bft) 97,87 %
28.07.2022 13:56 24,2 C 26,1 C 20,6 C 50 % 1017,3 hPa 0,0 l/m 2 min 0 min 660 W/m 12,9 km/h (3 Bft) 100,00 %
28.07.2022 13:58 24,2 C 26,1 C 20,6 C 50 % 1017,2 hPa 0,0 l/m 2 min 0 min 764 W/m 12,9 km/h (3 Bft) 100,00 %
28.07.2022 14:00 24,2 C 25,6 C 20,6 C 51 % 1017,2 hPa 0,0 l/m 2 min 0 min 757 W/m 16,1 km/h (3 Bft) 100,00 %
28.07.2022 14:02 24,3 C 26,1 C 20,6 C 52 % 1017,1 hPa 0,0 l/m 2 min 0 min 736 W/m 12,9 km/h (3 Bft) 100,00 %
28.07.2022 14:04 24,3 C 26,7 C 20,6 C 51 % 1017,2 hPa 0,0 l/m 2 min 0 min 765 W/m 12,9 km/h (3 Bft) 100,00 %
28.07.2022 14:06 24,4 C 26,7 C 20,6 C 51 % 1017,2 hPa 0,0 l/m 2 min 0 min 724 W/m 9,7 km/h (2 Bft) 98,28 %
28.07.2022 14:08 24,5 C 26,7 C 20,6 C 51 % 1017,2 hPa 0,0 l/m 2 min 0 min 679 W/m 16,1 km/h (3 Bft) 97,22 %
28.07.2022 14:10 24,5 C 26,7 C 20,0 C 50 % 1017,2 hPa 0,0 l/m 2 min 0 min 615 W/m 9,7 km/h (2 Bft) 100,00 %
28.07.2022 14:12 24,4 C 26,7 C 20,0 C 50 % 1017,2 hPa 0,0 l/m 2 min 0 min 699 W/m 12,9 km/h (3 Bft) 100,00 %
28.07.2022 14:14 24,4 C 26,7 C 20,0 C 50 % 1017,1 hPa 0,0 l/m 2 min 0 min 736 W/m 16,1 km/h (3 Bft) 100,00 %
28.07.2022 14:16 24,4 C 26,7 C 20,0 C 50 % 1017,1 hPa 0,0 l/m 2 min 0 min 722 W/m 6,4 km/h (2 Bft) 97,87 %
28.07.2022 14:18 24,6 C 27,2 C 20,6 C 51 % 1017,1 hPa 0,0 l/m 2 min 0 min 750 W/m 6,4 km/h (2 Bft) 100,00 %
28.07.2022 14:20 24,7 C 27,2 C 20,6 C 50 % 1017,1 hPa 0,0 l/m 2 min 0 min 755 W/m 9,7 km/h (2 Bft) 97,87 %
28.07.2022 14:22 24,7 C 27,2 C 20,0 C 50 % 1017,0 hPa 0,0 l/m 2 min 0 min 808 W/m 9,7 km/h (2 Bft) 100,00 %
28.07.2022 14:24 24,7 C 27,8 C 20,0 C 49 % 1017,0 hPa 0,0 l/m 2 min 0 min 826 W/m 9,7 km/h (2 Bft) 100,00 %
28.07.2022 14:26 24,7 C 27,2 C 20,0 C 48 % 1017,0 hPa 0,0 l/m 2 min 0 min 817 W/m 9,7 km/h (2 Bft) 97,87 %
28.07.2022 14:28 24,7 C 27,2 C 20,0 C 49 % 1016,9 hPa 0,0 l/m 2 min 0 min 872 W/m 9,7 km/h (2 Bft) 97,87 %
28.07.2022 14:30 24,8 C 27,2 C 20,0 C 50 % 1016,9 hPa 0,0 l/m 2 min 0 min 890 W/m 12,9 km/h (3 Bft) 95,74 %
28.07.2022 14:32 24,9 C 27,2 C 20,0 C 50 % 1016,9 hPa 0,0 l/m 2 min 0 min 885 W/m 19,3 km/h (3 Bft) 93,62 %
28.07.2022 14:34 25,0 C 27,2 C 20,6 C 50 % 1016,9 hPa 0,0 l/m 2 min 0 min 809 W/m 9,7 km/h (2 Bft) 95,65 %
28.07.2022 14:36 25,1 C 27,8 C 20,6 C 50 % 1016,9 hPa 0,0 l/m 2 min 0 min 845 W/m 9,7 km/h (2 Bft) 96,61 %
28.07.2022 14:38 25,2 C 27,8 C 20,6 C 48 % 1016,8 hPa 0,0 l/m 2 min 0 min 838 W/m 6,4 km/h (2 Bft) 94,29 %
28.07.2022 14:40 25,2 C 28,3 C 20,6 C 49 % 1016,8 hPa 0,0 l/m 2 min 0 min 803 W/m 9,7 km/h (2 Bft) 95,74 %
28.07.2022 14:42 25,2 C 27,8 C 20,6 C 49 % 1016,9 hPa 0,0 l/m 2 min 0 min 739 W/m 16,1 km/h (3 Bft) 93,62 %
28.07.2022 14:44 25,2 C 27,8 C 20,6 C 49 % 1016,8 hPa 0,0 l/m 2 min 0 min 699 W/m 16,1 km/h (3 Bft) 93,62 %
28.07.2022 14:46 25,2 C 27,2 C 20,6 C 49 % 1016,8 hPa 0,0 l/m 2 min 0 min 613 W/m 12,9 km/h (3 Bft) 95,65 %
28.07.2022 14:48 25,2 C 27,2 C 20,0 C 49 % 1016,8 hPa 0,0 l/m 2 min 0 min 496 W/m 9,7 km/h (2 Bft) 95,74 %
28.07.2022 14:50 25,1 C 27,2 C 20,0 C 49 % 1016,7 hPa 0,0 l/m 2 min 0 min 496 W/m 6,4 km/h (2 Bft) 95,74 %
28.07.2022 14:52 25,0 C 26,7 C 20,6 C 49 % 1016,7 hPa 0,0 l/m 2 min 0 min 429 W/m 12,9 km/h (3 Bft) 95,74 %
28.07.2022 14:54 24,9 C 26,1 C 20,6 C 50 % 1016,8 hPa 0,0 l/m 2 min 0 min 403 W/m 9,7 km/h (2 Bft) 95,74 %
28.07.2022 14:56 24,9 C 25,6 C 20,6 C 49 % 1016,8 hPa 0,0 l/m 0 min 0 min 327 W/m 6,4 km/h (2 Bft) 95,65 %
28.07.2022 14:58 24,9 C 25,6 C 20,6 C 49 % 1016,8 hPa 0,0 l/m 0 min 0 min 320 W/m 6,4 km/h (2 Bft) 95,74 %
28.07.2022 15:00 24,8 C 25,0 C 20,6 C 49 % 1016,8 hPa 0,0 l/m 0 min 0 min 309 W/m 9,7 km/h (2 Bft) 93,62 %
28.07.2022 15:02 24,8 C 25,0 C 20,0 C 50 % 1016,8 hPa 0,0 l/m 0 min 0 min 302 W/m 9,7 km/h (2 Bft) 93,62 %
28.07.2022 15:04 24,7 C 25,0 C 20,0 C 50 % 1016,8 hPa 0,0 l/m 0 min 0 min 302 W/m 6,4 km/h (2 Bft) 97,87 %
28.07.2022 15:06 24,7 C 25,0 C 20,0 C 50 % 1016,8 hPa 0,0 l/m 0 min 0 min 306 W/m 6,4 km/h (2 Bft) 98,28 %
28.07.2022 15:08 24,6 C 25,6 C 20,0 C 50 % 1016,7 hPa 0,0 l/m 0 min 0 min 316 W/m 9,7 km/h (2 Bft) 94,29 %
28.07.2022 15:10 24,6 C 25,6 C 20,0 C 52 % 1016,7 hPa 0,0 l/m 0 min 0 min 329 W/m 6,4 km/h (2 Bft) 100,00 %
28.07.2022 15:12 24,6 C 25,6 C 20,0 C 51 % 1016,7 hPa 0,0 l/m 0 min 0 min 342 W/m 9,7 km/h (2 Bft) 100,00 %
28.07.2022 15:14 24,6 C 25,6 C 20,0 C 50 % 1016,6 hPa 0,0 l/m 0 min 0 min 375 W/m 9,7 km/h (2 Bft) 100,00 %
28.07.2022 15:16 24,6 C 26,1 C 20,0 C 50 % 1016,6 hPa 0,0 l/m 2 min 0 min 492 W/m 9,7 km/h (2 Bft) 100,00 %
28.07.2022 15:18 24,7 C 26,1 C 20,6 C 49 % 1016,6 hPa 0,0 l/m 2 min 0 min 640 W/m 19,3 km/h (3 Bft) 97,87 %
28.07.2022 15:20 24,7 C 26,7 C 20,6 C 50 % 1016,6 hPa 0,0 l/m 2 min 0 min 628 W/m 9,7 km/h (2 Bft) 97,83 %
28.07.2022 15:22 24,9 C 27,8 C 20,6 C 50 % 1016,6 hPa 0,0 l/m 2 min 0 min 847 W/m 9,7 km/h (2 Bft) 95,74 %
28.07.2022 15:24 25,1 C 28,3 C 21,1 C 49 % 1016,6 hPa 0,0 l/m 2 min 0 min 955 W/m 9,7 km/h (2 Bft) 97,87 %
28.07.2022 15:26 25,3 C 28,3 C 21,1 C 49 % 1016,6 hPa 0,0 l/m 2 min 0 min 910 W/m 16,1 km/h (3 Bft) 97,87 %
28.07.2022 15:28 25,4 C 28,3 C 21,1 C 48 % 1016,5 hPa 0,0 l/m 2 min 0 min 889 W/m 16,1 km/h (3 Bft) 97,87 %
28.07.2022 15:30 25,7 C 28,9 C 21,1 C 49 % 1016,5 hPa 0,0 l/m 2 min 0 min 894 W/m 9,7 km/h (2 Bft) 95,74 %
28.07.2022 15:32 25,9 C 29,4 C 21,7 C 49 % 1016,4 hPa 0,0 l/m 2 min 0 min 860 W/m 12,9 km/h (3 Bft) 97,83 %
28.07.2022 15:34 26,2 C 29,4 C 21,7 C 49 % 1016,5 hPa 0,0 l/m 2 min 0 min 862 W/m 19,3 km/h (3 Bft) 97,87 %
28.07.2022 15:36 26,3 C 30,0 C 21,7 C 49 % 1016,4 hPa 0,0 l/m 2 min 0 min 874 W/m 9,7 km/h (2 Bft) 98,31 %
28.07.2022 15:38 26,4 C 30,6 C 21,7 C 48 % 1016,4 hPa 0,0 l/m 2 min 0 min 829 W/m 12,9 km/h (3 Bft) 97,14 %
28.07.2022 15:40 26,6 C 30,6 C 21,7 C 48 % 1016,4 hPa 0,0 l/m 2 min 0 min 877 W/m 16,1 km/h (3 Bft) 97,87 %
28.07.2022 15:42 26,6 C 30,0 C 21,7 C 47 % 1016,4 hPa 0,0 l/m 2 min 0 min 910 W/m 16,1 km/h (3 Bft) 97,87 %
28.07.2022 15:44 26,6 C 29,4 C 21,7 C 47 % 1016,5 hPa 0,0 l/m 2 min 0 min 867 W/m 12,9 km/h (3 Bft) 95,65 %
28.07.2022 15:46 26,5 C 29,4 C 21,7 C 46 % 1016,5 hPa 0,0 l/m 2 min 0 min 577 W/m 12,9 km/h (3 Bft) 97,87 %
28.07.2022 15:48 26,6 C 29,4 C 21,1 C 47 % 1016,4 hPa 0,0 l/m 2 min 0 min 738 W/m 9,7 km/h (2 Bft) 97,87 %
28.07.2022 15:50 26,5 C 29,4 C 21,1 C 47 % 1016,4 hPa 0,0 l/m 2 min 0 min 681 W/m 9,7 km/h (2 Bft) 97,87 %
28.07.2022 15:52 26,5 C 30,0 C 21,1 C 48 % 1016,3 hPa 0,0 l/m 2 min 0 min 601 W/m 9,7 km/h (2 Bft) 95,74 %
28.07.2022 15:54 26,4 C 29,4 C 21,1 C 47 % 1016,3 hPa 0,0 l/m 2 min 0 min 546 W/m 9,7 km/h (2 Bft) 97,87 %
28.07.2022 15:56 26,4 C 29,4 C 21,7 C 48 % 1016,3 hPa 0,0 l/m 2 min 0 min 560 W/m 16,1 km/h (3 Bft) 97,83 %
28.07.2022 15:58 26,3 C 29,4 C 21,1 C 48 % 1016,3 hPa 0,0 l/m 2 min 0 min 670 W/m 16,1 km/h (3 Bft) 97,87 %
28.07.2022 16:00 26,3 C 30,0 C 21,7 C 48 % 1016,3 hPa 0,0 l/m 2 min 0 min 670 W/m 9,7 km/h (2 Bft) 97,87 %
28.07.2022 16:02 26,3 C 30,6 C 21,7 C 47 % 1016,3 hPa 0,0 l/m 2 min 0 min 805 W/m 6,4 km/h (2 Bft) 95,74 %
28.07.2022 16:04 26,3 C 30,0 C 21,1 C 46 % 1016,3 hPa 0,0 l/m 2 min 0 min 796 W/m 12,9 km/h (3 Bft) 97,87 %
28.07.2022 16:06 26,2 C 29,4 C 21,1 C 46 % 1016,2 hPa 0,0 l/m 2 min 0 min 474 W/m 9,7 km/h (2 Bft) 98,15 %
28.07.2022 16:08 26,1 C 28,3 C 21,1 C 47 % 1016,3 hPa 0,0 l/m 2 min 0 min 359 W/m 12,9 km/h (3 Bft) 97,87 %
28.07.2022 16:10 26,1 C 28,3 C 21,1 C 48 % 1016,3 hPa 0,0 l/m 2 min 0 min 365 W/m 9,7 km/h (2 Bft) 97,87 %
28.07.2022 16:12 25,9 C 27,8 C 21,1 C 49 % 1016,3 hPa 0,0 l/m 2 min 0 min 456 W/m 16,1 km/h (3 Bft) 97,87 %
28.07.2022 16:14 25,9 C 29,4 C 21,7 C 49 % 1016,3 hPa 0,0 l/m 2 min 0 min 510 W/m 9,7 km/h (2 Bft) 97,87 %
28.07.2022 16:16 25,9 C 29,4 C 21,7 C 48 % 1016,3 hPa 0,0 l/m 2 min 0 min 797 W/m 16,1 km/h (3 Bft) 100,00 %
28.07.2022 16:18 26,0 C 29,4 C 21,7 C 48 % 1016,3 hPa 0,0 l/m 2 min 0 min 740 W/m 12,9 km/h (3 Bft) 100,00 %
28.07.2022 16:20 25,9 C 27,8 C 21,1 C 47 % 1016,3 hPa 0,0 l/m 2 min 0 min 655 W/m 9,7 km/h (2 Bft) 100,00 %
28.07.2022 16:22 25,9 C 27,2 C 21,1 C 48 % 1016,2 hPa 0,0 l/m 2 min 0 min 436 W/m 12,9 km/h (3 Bft) 100,00 %
28.07.2022 16:24 25,8 C 27,2 C 21,1 C 48 % 1016,2 hPa 0,0 l/m 2 min 0 min 419 W/m 16,1 km/h (3 Bft) 100,00 %
28.07.2022 16:26 25,8 C 27,2 C 21,1 C 48 % 1016,2 hPa 0,0 l/m 2 min 0 min 401 W/m 6,4 km/h (2 Bft) 97,87 %
28.07.2022 16:28 25,8 C 27,2 C 21,1 C 49 % 1016,3 hPa 0,0 l/m 2 min 0 min 392 W/m 9,7 km/h (2 Bft) 97,83 %
28.07.2022 16:30 25,8 C 27,2 C 21,1 C 49 % 1016,2 hPa 0,0 l/m 2 min 0 min 348 W/m 16,1 km/h (3 Bft) 97,87 %
28.07.2022 16:32 25,7 C 26,7 C 21,1 C 48 % 1016,3 hPa 0,0 l/m 2 min 0 min 354 W/m 9,7 km/h (2 Bft) 95,74 %
28.07.2022 16:34 25,6 C 26,7 C 21,1 C 49 % 1016,2 hPa 0,0 l/m 2 min 0 min 375 W/m 16,1 km/h (3 Bft) 97,87 %
28.07.2022 16:36 25,6 C 26,7 C 21,1 C 49 % 1016,2 hPa 0,0 l/m 2 min 0 min 380 W/m 9,7 km/h (2 Bft) 97,87 %
28.07.2022 16:38 25,6 C 27,2 C 21,1 C 49 % 1016,2 hPa 0,0 l/m 2 min 0 min 410 W/m 6,4 km/h (2 Bft) 97,87 %
28.07.2022 16:40 25,7 C 27,2 C 21,1 C 49 % 1016,2 hPa 0,0 l/m 2 min 0 min 403 W/m 6,4 km/h (2 Bft) 100,00 %
28.07.2022 16:42 25,7 C 27,8 C 21,1 C 49 % 1016,2 hPa 0,0 l/m 2 min 0 min 427 W/m 9,7 km/h (2 Bft) 97,87 %
28.07.2022 16:44 25,7 C 28,3 C 21,1 C 49 % 1016,2 hPa 0,0 l/m 2 min 0 min 510 W/m 6,4 km/h (2 Bft) 97,87 %
28.07.2022 16:46 25,7 C 28,3 C 21,1 C 48 % 1016,2 hPa 0,0 l/m 2 min 0 min 481 W/m 9,7 km/h (2 Bft) 97,87 %
28.07.2022 16:48 25,7 C 28,3 C 21,1 C 48 % 1016,2 hPa 0,0 l/m 2 min 0 min 487 W/m 12,9 km/h (3 Bft) 97,87 %
28.07.2022 16:50 25,8 C 27,8 C 21,7 C 48 % 1016,2 hPa 0,0 l/m 2 min 0 min 432 W/m 9,7 km/h (2 Bft) 97,87 %
28.07.2022 16:52 25,8 C 27,2 C 21,1 C 48 % 1016,2 hPa 0,0 l/m 2 min 0 min 424 W/m 16,1 km/h (3 Bft) 97,83 %
28.07.2022 16:54 25,7 C 27,2 C 21,1 C 48 % 1016,2 hPa 0,0 l/m 2 min 0 min 368 W/m 12,9 km/h (3 Bft) 97,87 %
28.07.2022 16:56 25,7 C 26,7 C 21,1 C 49 % 1016,2 hPa 0,0 l/m 0 min 0 min 281 W/m 12,9 km/h (3 Bft) 97,87 %
28.07.2022 16:58 25,7 C 26,1 C 21,1 C 48 % 1016,2 hPa 0,0 l/m 0 min 0 min 247 W/m 6,4 km/h (2 Bft) 95,74 %
28.07.2022 17:00 25,6 C 26,1 C 21,1 C 49 % 1016,2 hPa 0,0 l/m 0 min 0 min 219 W/m 12,9 km/h (3 Bft) 93,62 %
28.07.2022 17:02 25,6 C 25,6 C 20,6 C 48 % 1016,2 hPa 0,0 l/m 0 min 0 min 212 W/m 12,9 km/h (3 Bft) 93,62 %
28.07.2022 17:04 25,5 C 25,0 C 20,6 C 50 % 1016,2 hPa 0,0 l/m 0 min 0 min 218 W/m 12,9 km/h (3 Bft) 97,83 %
28.07.2022 17:06 25,4 C 25,0 C 20,6 C 49 % 1016,2 hPa 0,0 l/m 0 min 0 min 216 W/m 6,4 km/h (2 Bft) 97,87 %
28.07.2022 17:08 25,4 C 25,0 C 20,6 C 50 % 1016,2 hPa 0,0 l/m 0 min 0 min 220 W/m 12,9 km/h (3 Bft) 97,87 %
28.07.2022 17:10 25,3 C 25,0 C 20,6 C 50 % 1016,1 hPa 0,0 l/m 0 min 0 min 216 W/m 16,1 km/h (3 Bft) 97,87 %
28.07.2022 17:12 25,2 C 25,0 C 20,6 C 50 % 1016,0 hPa 0,0 l/m 0 min 2 min 211 W/m 12,9 km/h (3 Bft) 97,87 %
28.07.2022 17:14 25,2 C 25,0 C 20,6 C 49 % 1016,0 hPa 0,0 l/m 0 min 0 min 208 W/m 16,1 km/h (3 Bft) 97,87 %
28.07.2022 17:16 25,2 C 25,0 C 20,6 C 49 % 1016,0 hPa 0,0 l/m 0 min 0 min 203 W/m 9,7 km/h (2 Bft) 97,83 %
28.07.2022 17:18 25,1 C 25,0 C 20,6 C 49 % 1016,0 hPa 0,0 l/m 0 min 0 min 194 W/m 12,9 km/h (3 Bft) 95,74 %
28.07.2022 17:20 25,1 C 25,0 C 20,6 C 50 % 1016,0 hPa 0,0 l/m 0 min 0 min 182 W/m 3,2 km/h (1 Bft) 97,87 %
28.07.2022 17:22 25,1 C 25,0 C 20,6 C 51 % 1016,0 hPa 0,0 l/m 0 min 2 min 172 W/m 6,4 km/h (2 Bft) 97,87 %
28.07.2022 17:24 25,1 C 25,0 C 20,6 C 50 % 1015,9 hPa 0,0 l/m 0 min 0 min 161 W/m 9,7 km/h (2 Bft) 97,87 %
28.07.2022 17:26 25,1 C 24,4 C 20,6 C 50 % 1016,0 hPa 0,0 l/m 0 min 0 min 150 W/m 9,7 km/h (2 Bft) 97,87 %
28.07.2022 17:28 25,0 C 24,4 C 20,6 C 51 % 1016,0 hPa 0,0 l/m 0 min 0 min 142 W/m 9,7 km/h (2 Bft) 95,65 %
28.07.2022 17:30 24,9 C 24,4 C 20,0 C 50 % 1015,9 hPa 0,0 l/m 0 min 0 min 141 W/m 9,7 km/h (2 Bft) 97,87 %
28.07.2022 17:32 24,9 C 24,4 C 20,0 C 51 % 1016,0 hPa 0,0 l/m 0 min 0 min 141 W/m 6,4 km/h (2 Bft) 97,87 %
28.07.2022 17:34 24,8 C 24,4 C 20,0 C 52 % 1016,0 hPa 0,0 l/m 0 min 0 min 145 W/m 9,7 km/h (2 Bft) 95,74 %
28.07.2022 17:36 24,7 C 24,4 C 20,0 C 51 % 1015,9 hPa 0,0 l/m 0 min 0 min 151 W/m 6,4 km/h (2 Bft) 97,87 %
28.07.2022 17:38 24,7 C 24,4 C 20,0 C 51 % 1016,0 hPa 0,0 l/m 0 min 0 min 160 W/m 12,9 km/h (3 Bft) 97,87 %
28.07.2022 17:40 24,6 C 24,4 C 20,0 C 50 % 1016,0 hPa 0,0 l/m 0 min 0 min 167 W/m 9,7 km/h (2 Bft) 100,00 %
28.07.2022 17:42 24,6 C 24,4 C 20,0 C 51 % 1016,0 hPa 0,0 l/m 0 min 0 min 173 W/m 12,9 km/h (3 Bft) 100,00 %
28.07.2022 17:44 24,6 C 24,4 C 20,0 C 50 % 1016,0 hPa 0,0 l/m 0 min 0 min 181 W/m 6,4 km/h (2 Bft) 100,00 %
28.07.2022 17:46 24,6 C 24,4 C 20,0 C 51 % 1015,9 hPa 0,0 l/m 0 min 0 min 187 W/m 6,4 km/h (2 Bft) 100,00 %
28.07.2022 17:48 24,5 C 24,4 C 20,0 C 52 % 1015,9 hPa 0,0 l/m 0 min 0 min 197 W/m 12,9 km/h (3 Bft) 100,00 %
28.07.2022 17:50 24,5 C 24,4 C 20,0 C 51 % 1015,9 hPa 0,0 l/m 0 min 0 min 206 W/m 12,9 km/h (3 Bft) 100,00 %
28.07.2022 17:52 24,5 C 25,0 C 20,0 C 52 % 1015,9 hPa 0,0 l/m 0 min 0 min 208 W/m 6,4 km/h (2 Bft) 100,00 %
28.07.2022 17:54 24,5 C 25,0 C 20,0 C 51 % 1015,8 hPa 0,0 l/m 0 min 0 min 212 W/m 9,7 km/h (2 Bft) 100,00 %
28.07.2022 17:56 24,5 C 25,0 C 20,0 C 51 % 1015,8 hPa 0,0 l/m 0 min 0 min 234 W/m 12,9 km/h (3 Bft) 100,00 %
28.07.2022 17:58 24,5 C 25,0 C 20,6 C 52 % 1015,8 hPa 0,0 l/m 2 min 0 min 247 W/m 9,7 km/h (2 Bft) 100,00 %
28.07.2022 18:00 24,6 C 25,0 C 20,6 C 51 % 1015,8 hPa 0,0 l/m 0 min 0 min 229 W/m 12,9 km/h (3 Bft) 100,00 %
28.07.2022 18:02 24,6 C 25,0 C 20,6 C 51 % 1015,8 hPa 0,0 l/m 0 min 0 min 222 W/m 6,4 km/h (2 Bft) 100,00 %
28.07.2022 18:04 24,6 C 25,0 C 20,6 C 52 % 1015,8 hPa 0,0 l/m 0 min 0 min 218 W/m 6,4 km/h (2 Bft) 100,00 %
28.07.2022 18:08 24,6 C 24,4 C 20,0 C 50 % 1015,8 hPa 0,0 l/m 0 min 0 min 221 W/m 12,9 km/h (3 Bft) 98,96 %
28.07.2022 18:10 24,6 C 24,4 C 20,6 C 51 % 1015,7 hPa 0,0 l/m 0 min 0 min 219 W/m 12,9 km/h (3 Bft) 97,87 %
28.07.2022 18:12 24,6 C 24,4 C 20,0 C 51 % 1015,7 hPa 0,0 l/m 0 min 0 min 212 W/m 16,1 km/h (3 Bft) 97,87 %
28.07.2022 18:14 24,6 C 24,4 C 20,0 C 51 % 1015,7 hPa 0,0 l/m 0 min 0 min 206 W/m 16,1 km/h (3 Bft) 100,00 %
28.07.2022 18:16 24,6 C 24,4 C 20,0 C 51 % 1015,8 hPa 0,0 l/m 0 min 0 min 201 W/m 16,1 km/h (3 Bft) 100,00 %
28.07.2022 18:18 24,6 C 24,4 C 20,0 C 51 % 1015,7 hPa 0,0 l/m 0 min 0 min 194 W/m 16,1 km/h (3 Bft) 95,74 %
28.07.2022 18:20 24,5 C 24,4 C 20,0 C 51 % 1015,7 hPa 0,0 l/m 0 min 0 min 192 W/m 19,3 km/h (3 Bft) 100,00 %
28.07.2022 18:22 24,4 C 24,4 C 20,0 C 51 % 1015,7 hPa 0,0 l/m 0 min 0 min 192 W/m 9,7 km/h (2 Bft) 97,87 %
28.07.2022 18:24 24,4 C 24,4 C 20,0 C 51 % 1015,7 hPa 0,0 l/m 0 min 0 min 193 W/m 12,9 km/h (3 Bft) 100,00 %
28.07.2022 18:26 24,4 C 24,4 C 20,0 C 51 % 1015,7 hPa 0,0 l/m 0 min 0 min 196 W/m 12,9 km/h (3 Bft) 100,00 %
28.07.2022 18:28 24,4 C 24,4 C 20,0 C 51 % 1015,7 hPa 0,0 l/m 0 min 0 min 202 W/m 12,9 km/h (3 Bft) 97,83 %
28.07.2022 18:30 24,4 C 25,0 C 20,0 C 51 % 1015,7 hPa 0,0 l/m 2 min 0 min 211 W/m 9,7 km/h (2 Bft) 97,87 %
28.07.2022 18:32 24,4 C 25,0 C 20,0 C 51 % 1015,7 hPa 0,0 l/m 2 min 0 min 218 W/m 6,4 km/h (2 Bft) 95,74 %
28.07.2022 18:34 24,5 C 25,0 C 20,0 C 52 % 1015,7 hPa 0,0 l/m 2 min 0 min 229 W/m 6,4 km/h (2 Bft) 93,62 %
28.07.2022 18:36 24,6 C 25,6 C 20,6 C 51 % 1015,6 hPa 0,0 l/m 2 min 0 min 241 W/m 12,9 km/h (3 Bft) 95,74 %
28.07.2022 18:38 24,6 C 25,6 C 20,6 C 51 % 1015,7 hPa 0,0 l/m 2 min 0 min 240 W/m 9,7 km/h (2 Bft) 95,74 %
28.07.2022 18:40 24,6 C 25,6 C 20,6 C 51 % 1015,6 hPa 0,0 l/m 2 min 0 min 241 W/m 12,9 km/h (3 Bft) 95,65 %
28.07.2022 18:42 24,7 C 25,6 C 20,6 C 51 % 1015,6 hPa 0,0 l/m 2 min 0 min 232 W/m 16,1 km/h (3 Bft) 93,62 %
28.07.2022 18:44 24,7 C 25,6 C 20,6 C 51 % 1015,6 hPa 0,0 l/m 2 min 0 min 227 W/m 12,9 km/h (3 Bft) 95,74 %
28.07.2022 18:46 24,7 C 25,6 C 20,6 C 51 % 1015,6 hPa 0,0 l/m 2 min 0 min 223 W/m 12,9 km/h (3 Bft) 95,74 %
28.07.2022 18:48 24,7 C 25,6 C 20,6 C 51 % 1015,7 hPa 0,0 l/m 2 min 0 min 222 W/m 9,7 km/h (2 Bft) 95,74 %
28.07.2022 18:50 24,7 C 25,6 C 20,6 C 52 % 1015,6 hPa 0,0 l/m 2 min 0 min 227 W/m 6,4 km/h (2 Bft) 95,74 %
28.07.2022 18:52 24,7 C 25,6 C 20,6 C 51 % 1015,6 hPa 0,0 l/m 2 min 0 min 199 W/m 9,7 km/h (2 Bft) 95,65 %
28.07.2022 18:54 24,7 C 25,0 C 20,6 C 52 % 1015,6 hPa 0,0 l/m 2 min 0 min 198 W/m 19,3 km/h (3 Bft) 97,87 %
28.07.2022 18:56 24,7 C 25,0 C 20,0 C 52 % 1015,7 hPa 0,0 l/m 2 min 0 min 189 W/m 16,1 km/h (3 Bft) 95,74 %
28.07.2022 18:58 24,7 C 25,0 C 20,0 C 51 % 1015,6 hPa 0,0 l/m 2 min 0 min 197 W/m 9,7 km/h (2 Bft) 95,74 %
28.07.2022 19:00 24,6 C 25,0 C 20,0 C 51 % 1015,7 hPa 0,0 l/m 2 min 0 min 191 W/m 16,1 km/h (3 Bft) 95,74 %
28.07.2022 19:02 24,6 C 24,4 C 20,0 C 51 % 1015,6 hPa 0,0 l/m 2 min 0 min 176 W/m 12,9 km/h (3 Bft) 97,87 %
28.07.2022 19:04 24,6 C 24,4 C 20,0 C 51 % 1015,7 hPa 0,0 l/m 0 min 0 min 166 W/m 16,1 km/h (3 Bft) 97,83 %
28.07.2022 19:06 24,6 C 24,4 C 20,0 C 52 % 1015,7 hPa 0,0 l/m 0 min 0 min 155 W/m 12,9 km/h (3 Bft) 95,74 %
28.07.2022 19:08 24,5 C 24,4 C 20,0 C 52 % 1015,7 hPa 0,0 l/m 0 min 0 min 145 W/m 6,4 km/h (2 Bft) 97,87 %
28.07.2022 19:10 24,4 C 23,9 C 20,0 C 52 % 1015,7 hPa 0,0 l/m 0 min 0 min 131 W/m 9,7 km/h (2 Bft) 97,87 %
28.07.2022 19:12 24,4 C 23,9 C 20,0 C 52 % 1015,6 hPa 0,0 l/m 0 min 0 min 126 W/m 16,1 km/h (3 Bft) 95,74 %
28.07.2022 19:14 24,4 C 23,9 C 19,4 C 52 % 1015,6 hPa 0,0 l/m 0 min 0 min 119 W/m 12,9 km/h (3 Bft) 95,74 %
28.07.2022 19:16 24,3 C 23,9 C 19,4 C 52 % 1015,6 hPa 0,0 l/m 0 min 0 min 117 W/m 9,7 km/h (2 Bft) 95,65 %
28.07.2022 19:18 24,3 C 23,9 C 19,4 C 52 % 1015,7 hPa 0,0 l/m 0 min 0 min 113 W/m 6,4 km/h (2 Bft) 97,87 %
28.07.2022 19:20 24,2 C 23,3 C 19,4 C 52 % 1015,7 hPa 0,0 l/m 0 min 0 min 110 W/m 22,5 km/h (4 Bft) 97,87 %
28.07.2022 19:22 24,2 C 23,3 C 19,4 C 52 % 1015,8 hPa 0,0 l/m 0 min 0 min 103 W/m 19,3 km/h (3 Bft) 97,87 %
28.07.2022 19:24 24,1 C 23,3 C 19,4 C 53 % 1015,7 hPa 0,0 l/m 0 min 0 min 98 W/m 6,4 km/h (2 Bft) 100,00 %
28.07.2022 19:26 24,1 C 23,3 C 19,4 C 54 % 1015,8 hPa 0,0 l/m 0 min 0 min 97 W/m 6,4 km/h (2 Bft) 97,87 %
28.07.2022 19:28 24,1 C 23,3 C 19,4 C 54 % 1015,7 hPa 0,0 l/m 0 min 0 min 95 W/m 6,4 km/h (2 Bft) 100,00 %
28.07.2022 19:30 24,0 C 23,3 C 19,4 C 53 % 1015,7 hPa 0,0 l/m 0 min 0 min 94 W/m 12,9 km/h (3 Bft) 97,87 %
28.07.2022 19:32 23,9 C 23,3 C 19,4 C 53 % 1015,7 hPa 0,0 l/m 0 min 0 min 93 W/m 12,9 km/h (3 Bft) 97,87 %
28.07.2022 19:34 23,9 C 23,3 C 19,4 C 53 % 1015,7 hPa 0,0 l/m 0 min 0 min 92 W/m 12,9 km/h (3 Bft) 95,74 %
28.07.2022 19:36 23,8 C 23,3 C 19,4 C 53 % 1015,7 hPa 0,0 l/m 0 min 0 min 91 W/m 12,9 km/h (3 Bft) 97,87 %
28.07.2022 19:38 23,8 C 23,3 C 18,9 C 53 % 1015,7 hPa 0,0 l/m 0 min 0 min 90 W/m 12,9 km/h (3 Bft) 97,83 %
28.07.2022 19:40 23,8 C 23,3 C 18,9 C 53 % 1015,7 hPa 0,0 l/m 0 min 0 min 88 W/m 6,4 km/h (2 Bft) 97,87 %
28.07.2022 19:42 23,8 C 23,3 C 18,9 C 54 % 1015,8 hPa 0,0 l/m 0 min 0 min 85 W/m 12,9 km/h (3 Bft) 97,87 %
28.07.2022 19:44 23,7 C 22,8 C 18,9 C 53 % 1015,7 hPa 0,0 l/m 0 min 0 min 83 W/m 12,9 km/h (3 Bft) 95,74 %
28.07.2022 19:46 23,7 C 22,8 C 18,9 C 54 % 1015,7 hPa 0,0 l/m 0 min 0 min 79 W/m 16,1 km/h (3 Bft) 97,87 %
28.07.2022 19:48 23,7 C 22,8 C 18,9 C 53 % 1015,7 hPa 0,0 l/m 0 min 0 min 76 W/m 9,7 km/h (2 Bft) 97,87 %
28.07.2022 19:50 23,6 C 22,8 C 18,9 C 54 % 1015,7 hPa 0,0 l/m 0 min 0 min 73 W/m 6,4 km/h (2 Bft) 97,83 %
28.07.2022 19:52 23,6 C 22,8 C 18,9 C 53 % 1015,7 hPa 0,0 l/m 0 min 0 min 71 W/m 12,9 km/h (3 Bft) 93,62 %
28.07.2022 19:54 23,5 C 22,8 C 18,9 C 53 % 1015,7 hPa 0,0 l/m 0 min 0 min 69 W/m 9,7 km/h (2 Bft) 97,87 %
28.07.2022 19:56 23,4 C 22,8 C 18,9 C 54 % 1015,7 hPa 0,0 l/m 0 min 0 min 68 W/m 9,7 km/h (2 Bft) 97,87 %
28.07.2022 19:58 23,4 C 22,8 C 18,9 C 53 % 1015,7 hPa 0,0 l/m 0 min 0 min 64 W/m 6,4 km/h (2 Bft) 97,87 %
28.07.2022 20:00 23,3 C 22,8 C 18,9 C 54 % 1015,7 hPa 0,0 l/m 0 min 0 min 62 W/m 9,7 km/h (2 Bft) 97,87 %
28.07.2022 20:02 23,3 C 22,8 C 18,9 C 54 % 1015,7 hPa 0,0 l/m 0 min 0 min 59 W/m 19,3 km/h (3 Bft) 97,83 %
28.07.2022 20:04 23,3 C 22,2 C 18,9 C 54 % 1015,7 hPa 0,0 l/m 0 min 0 min 57 W/m 16,1 km/h (3 Bft) 95,74 %
28.07.2022 20:06 23,3 C 22,2 C 18,9 C 54 % 1015,7 hPa 0,0 l/m 0 min 0 min 54 W/m 19,3 km/h (3 Bft) 97,87 %
28.07.2022 20:08 23,2 C 22,2 C 18,9 C 54 % 1015,7 hPa 0,0 l/m 0 min 0 min 50 W/m 9,7 km/h (2 Bft) 95,74 %
28.07.2022 20:10 23,2 C 22,2 C 18,3 C 54 % 1015,6 hPa 0,0 l/m 0 min 0 min 47 W/m 3,2 km/h (1 Bft) 95,74 %
28.07.2022 20:12 23,2 C 22,2 C 18,3 C 55 % 1015,7 hPa 0,0 l/m 0 min 0 min 43 W/m 6,4 km/h (2 Bft) 95,74 %
28.07.2022 20:14 23,2 C 22,2 C 18,3 C 55 % 1015,7 hPa 0,0 l/m 0 min 0 min 40 W/m 6,4 km/h (2 Bft) 100,00 %
28.07.2022 20:16 23,1 C 22,2 C 18,3 C 55 % 1015,6 hPa 0,0 l/m 0 min 0 min 39 W/m 12,9 km/h (3 Bft) 100,00 %
28.07.2022 20:18 23,1 C 22,2 C 18,3 C 55 % 1015,7 hPa 0,0 l/m 0 min 0 min 37 W/m 9,7 km/h (2 Bft) 100,00 %
28.07.2022 20:20 23,1 C 22,2 C 18,3 C 55 % 1015,7 hPa 0,0 l/m 0 min 0 min 37 W/m 9,7 km/h (2 Bft) 100,00 %
28.07.2022 20:22 23,1 C 22,2 C 18,3 C 55 % 1015,7 hPa 0,0 l/m 0 min 0 min 37 W/m 12,9 km/h (3 Bft) 95,74 %
28.07.2022 20:24 23,0 C 22,2 C 18,3 C 55 % 1015,6 hPa 0,0 l/m 0 min 0 min 37 W/m 12,9 km/h (3 Bft) 100,00 %
28.07.2022 20:26 22,9 C 22,2 C 18,3 C 55 % 1015,7 hPa 0,0 l/m 0 min 0 min 37 W/m 12,9 km/h (3 Bft) 100,00 %
28.07.2022 20:28 22,9 C 22,2 C 18,3 C 55 % 1015,6 hPa 0,0 l/m 0 min 0 min 38 W/m 6,4 km/h (2 Bft) 97,87 %
28.07.2022 20:30 22,9 C 22,2 C 18,3 C 55 % 1015,7 hPa 0,0 l/m 0 min 0 min 37 W/m 16,1 km/h (3 Bft) 97,87 %
28.07.2022 20:32 22,9 C 22,2 C 18,3 C 55 % 1015,7 hPa 0,0 l/m 0 min 0 min 36 W/m 12,9 km/h (3 Bft) 97,87 %
28.07.2022 20:34 22,8 C 22,2 C 18,3 C 55 % 1015,6 hPa 0,0 l/m 0 min 0 min 34 W/m 12,9 km/h (3 Bft) 97,87 %
28.07.2022 20:36 22,8 C 22,2 C 18,3 C 55 % 1015,6 hPa 0,0 l/m 0 min 0 min 33 W/m 9,7 km/h (2 Bft) 95,74 %
28.07.2022 20:38 22,8 C 21,7 C 18,3 C 55 % 1015,6 hPa 0,0 l/m 0 min 0 min 30 W/m 12,9 km/h (3 Bft) 97,83 %
28.07.2022 20:40 22,8 C 21,7 C 18,3 C 56 % 1015,6 hPa 0,0 l/m 0 min 0 min 28 W/m 16,1 km/h (3 Bft) 97,87 %
28.07.2022 20:42 22,8 C 21,7 C 18,3 C 55 % 1015,6 hPa 0,0 l/m 0 min 0 min 26 W/m 12,9 km/h (3 Bft) 95,74 %
28.07.2022 20:44 22,8 C 21,7 C 18,3 C 55 % 1015,5 hPa 0,0 l/m 0 min 0 min 25 W/m 12,9 km/h (3 Bft) 97,87 %
28.07.2022 20:46 22,7 C 21,7 C 18,3 C 55 % 1015,6 hPa 0,0 l/m 0 min 0 min 25 W/m 12,9 km/h (3 Bft) 97,87 %
28.07.2022 20:48 22,7 C 21,7 C 18,3 C 56 % 1015,6 hPa 0,0 l/m 0 min 0 min 25 W/m 6,4 km/h (2 Bft) 95,74 %
28.07.2022 20:50 22,7 C 21,7 C 18,3 C 56 % 1015,6 hPa 0,0 l/m 0 min 0 min 24 W/m 3,2 km/h (1 Bft) 97,83 %
28.07.2022 20:52 22,7 C 21,7 C 17,8 C 56 % 1015,6 hPa 0,0 l/m 0 min 0 min 23 W/m 16,1 km/h (3 Bft) 97,87 %
28.07.2022 20:54 22,7 C 21,7 C 17,8 C 56 % 1015,6 hPa 0,0 l/m 0 min 0 min 23 W/m 6,4 km/h (2 Bft) 91,49 %
28.07.2022 20:56 22,6 C 21,7 C 17,8 C 56 % 1015,6 hPa 0,0 l/m 0 min 0 min 23 W/m 6,4 km/h (2 Bft) 95,74 %
28.07.2022 20:58 22,6 C 21,7 C 17,8 C 56 % 1015,6 hPa 0,0 l/m 0 min 0 min 22 W/m 12,9 km/h (3 Bft) 97,87 %
28.07.2022 21:00 22,5 C 21,7 C 17,8 C 56 % 1015,6 hPa 0,0 l/m 0 min 0 min 21 W/m 6,4 km/h (2 Bft) 97,87 %
28.07.2022 21:02 22,5 C 21,7 C 17,8 C 56 % 1015,6 hPa 0,0 l/m 0 min 0 min 19 W/m 9,7 km/h (2 Bft) 100,00 %
28.07.2022 21:04 22,4 C 21,7 C 17,8 C 57 % 1015,6 hPa 0,0 l/m 0 min 0 min 18 W/m 6,4 km/h (2 Bft) 97,87 %
28.07.2022 21:06 22,4 C 21,7 C 17,8 C 56 % 1015,7 hPa 0,0 l/m 0 min 0 min 16 W/m 12,9 km/h (3 Bft) 100,00 %
28.07.2022 21:08 22,4 C 21,1 C 17,8 C 56 % 1015,7 hPa 0,0 l/m 0 min 0 min 15 W/m 6,4 km/h (2 Bft) 100,00 %
28.07.2022 21:10 22,3 C 21,1 C 17,8 C 57 % 1015,7 hPa 0,0 l/m 0 min 0 min 12 W/m 6,4 km/h (2 Bft) 100,00 %
28.07.2022 21:12 22,3 C 21,1 C 17,8 C 57 % 1015,7 hPa 0,0 l/m 0 min 0 min 12 W/m 9,7 km/h (2 Bft) 100,00 %
28.07.2022 21:14 22,3 C 21,1 C 17,8 C 57 % 1015,7 hPa 0,0 l/m 0 min 0 min 9 W/m 9,7 km/h (2 Bft) 97,83 %
28.07.2022 21:16 22,3 C 21,1 C 17,8 C 57 % 1015,8 hPa 0,0 l/m 0 min 0 min 7 W/m 12,9 km/h (3 Bft) 100,00 %
28.07.2022 21:18 22,3 C 21,1 C 17,8 C 57 % 1015,8 hPa 0,0 l/m 0 min 0 min 5 W/m 12,9 km/h (3 Bft) 100,00 %
28.07.2022 21:20 22,2 C 21,1 C 17,8 C 57 % 1015,8 hPa 0,0 l/m 0 min 0 min 5 W/m 12,9 km/h (3 Bft) 97,87 %
28.07.2022 21:22 22,2 C 21,1 C 17,8 C 57 % 1015,8 hPa 0,0 l/m 0 min 0 min 1 W/m 6,4 km/h (2 Bft) 100,00 %
28.07.2022 21:24 22,2 C 21,1 C 17,8 C 57 % 1015,8 hPa 0,0 l/m 0 min 0 min 0 W/m 9,7 km/h (2 Bft) 100,00 %
28.07.2022 21:26 22,2 C 21,1 C 17,8 C 57 % 1015,9 hPa 0,0 l/m 0 min 0 min 0 W/m 6,4 km/h (2 Bft) 97,83 %
28.07.2022 21:28 22,1 C 21,1 C 17,8 C 57 % 1015,8 hPa 0,0 l/m 0 min 0 min 0 W/m 12,9 km/h (3 Bft) 100,00 %
28.07.2022 21:30 22,1 C 21,1 C 17,8 C 57 % 1015,9 hPa 0,0 l/m 0 min 0 min 0 W/m 6,4 km/h (2 Bft) 100,00 %
28.07.2022 21:32 22,1 C 21,1 C 17,2 C 57 % 1015,9 hPa 0,0 l/m 0 min 0 min 0 W/m 0,0 km/h (0 Bft) 97,87 %
28.07.2022 21:34 22,1 C 21,1 C 17,2 C 57 % 1015,9 hPa 0,0 l/m 0 min 0 min 0 W/m 9,7 km/h (2 Bft) 97,87 %
28.07.2022 21:36 22,1 C 21,1 C 17,2 C 57 % 1015,9 hPa 0,0 l/m 0 min 0 min 0 W/m 9,7 km/h (2 Bft) 97,87 %
28.07.2022 21:38 22,0 C 21,1 C 17,2 C 57 % 1015,9 hPa 0,0 l/m 0 min 0 min 0 W/m 12,9 km/h (3 Bft) 97,83 %
28.07.2022 21:40 22,0 C 21,1 C 17,2 C 57 % 1015,9 hPa 0,0 l/m 0 min 0 min 0 W/m 6,4 km/h (2 Bft) 100,00 %
28.07.2022 21:42 21,9 C 21,1 C 17,2 C 57 % 1016,0 hPa 0,0 l/m 0 min 0 min 0 W/m 3,2 km/h (1 Bft) 97,87 %
28.07.2022 21:44 21,9 C 21,1 C 17,2 C 58 % 1016,1 hPa 0,0 l/m 0 min 0 min 0 W/m 9,7 km/h (2 Bft) 95,74 %
28.07.2022 21:46 21,9 C 21,1 C 17,2 C 57 % 1016,1 hPa 0,0 l/m 0 min 0 min 0 W/m 6,4 km/h (2 Bft) 97,87 %
28.07.2022 21:48 21,9 C 21,1 C 17,2 C 58 % 1016,2 hPa 0,0 l/m 0 min 0 min 0 W/m 3,2 km/h (1 Bft) 97,87 %
28.07.2022 21:50 21,9 C 21,1 C 17,2 C 57 % 1016,1 hPa 0,0 l/m 0 min 0 min 0 W/m 6,4 km/h (2 Bft) 97,83 %
28.07.2022 21:52 21,8 C 21,1 C 17,2 C 57 % 1016,2 hPa 0,0 l/m 0 min 0 min 0 W/m 6,4 km/h (2 Bft) 97,87 %
28.07.2022 21:54 21,8 C 21,1 C 17,2 C 57 % 1016,2 hPa 0,0 l/m 0 min 0 min 0 W/m 9,7 km/h (2 Bft) 97,87 %
28.07.2022 21:56 21,8 C 21,1 C 17,2 C 57 % 1016,2 hPa 0,0 l/m 0 min 0 min 0 W/m 9,7 km/h (2 Bft) 95,74 %
28.07.2022 21:58 21,8 C 21,1 C 17,2 C 58 % 1016,3 hPa 0,0 l/m 0 min 0 min 0 W/m 3,2 km/h (1 Bft) 95,74 %
28.07.2022 22:00 21,8 C 21,1 C 17,2 C 58 % 1016,3 hPa 0,0 l/m 0 min 0 min 0 W/m 3,2 km/h (1 Bft) 97,87 %
28.07.2022 22:02 21,8 C 21,1 C 17,2 C 58 % 1016,3 hPa 0,0 l/m 0 min 0 min 0 W/m 9,7 km/h (2 Bft) 97,83 %
28.07.2022 22:04 21,8 C 20,6 C 17,2 C 58 % 1016,3 hPa 0,0 l/m 0 min 0 min 0 W/m 3,2 km/h (1 Bft) 95,74 %
28.07.2022 22:06 21,8 C 20,6 C 17,2 C 58 % 1016,4 hPa 0,0 l/m 0 min 0 min 0 W/m 12,9 km/h (3 Bft) 97,87 %
28.07.2022 22:08 21,8 C 20,6 C 17,2 C 58 % 1016,3 hPa 0,0 l/m 0 min 0 min 0 W/m 6,4 km/h (2 Bft) 95,74 %
28.07.2022 22:10 21,8 C 20,6 C 17,2 C 58 % 1016,3 hPa 0,0 l/m 0 min 0 min 0 W/m 9,7 km/h (2 Bft) 93,62 %
28.07.2022 22:12 21,7 C 20,6 C 17,2 C 58 % 1016,3 hPa 0,0 l/m 0 min 0 min 0 W/m 3,2 km/h (1 Bft) 95,74 %
28.07.2022 22:14 21,7 C 20,6 C 17,2 C 58 % 1016,3 hPa 0,0 l/m 0 min 0 min 0 W/m 12,9 km/h (3 Bft) 95,65 %
28.07.2022 22:16 21,7 C 20,6 C 17,2 C 58 % 1016,4 hPa 0,0 l/m 0 min 0 min 0 W/m 9,7 km/h (2 Bft) 95,74 %
28.07.2022 22:18 21,7 C 20,6 C 17,2 C 58 % 1016,4 hPa 0,0 l/m 0 min 0 min 0 W/m 9,7 km/h (2 Bft) 95,74 %
28.07.2022 22:20 21,6 C 20,6 C 17,2 C 58 % 1016,4 hPa 0,0 l/m 0 min 0 min 0 W/m 16,1 km/h (3 Bft) 91,49 %
28.07.2022 22:22 21,6 C 20,6 C 17,2 C 58 % 1016,4 hPa 0,0 l/m 0 min 0 min 0 W/m 12,9 km/h (3 Bft) 95,74 %
28.07.2022 22:24 21,6 C 20,6 C 17,2 C 58 % 1016,4 hPa 0,0 l/m 0 min 0 min 0 W/m 12,9 km/h (3 Bft) 95,74 %
28.07.2022 22:26 21,6 C 20,6 C 17,2 C 58 % 1016,4 hPa 0,0 l/m 0 min 0 min 0 W/m 3,2 km/h (1 Bft) 93,48 %
28.07.2022 22:28 21,6 C 20,6 C 17,2 C 59 % 1016,4 hPa 0,0 l/m 0 min 0 min 0 W/m 16,1 km/h (3 Bft) 91,49 %
28.07.2022 22:30 21,6 C 20,6 C 17,2 C 59 % 1016,4 hPa 0,0 l/m 0 min 0 min 0 W/m 6,4 km/h (2 Bft) 93,62 %
28.07.2022 22:32 21,5 C 20,6 C 17,2 C 59 % 1016,4 hPa 0,0 l/m 0 min 0 min 0 W/m 6,4 km/h (2 Bft) 95,74 %
28.07.2022 22:34 21,5 C 20,6 C 17,2 C 58 % 1016,4 hPa 0,0 l/m 0 min 0 min 0 W/m 3,2 km/h (1 Bft) 95,74 %
28.07.2022 22:36 21,5 C 20,6 C 16,7 C 58 % 1016,5 hPa 0,0 l/m 0 min 0 min 0 W/m 9,7 km/h (2 Bft) 95,74 %
28.07.2022 22:38 21,4 C 20,6 C 16,7 C 58 % 1016,4 hPa 0,0 l/m 0 min 0 min 0 W/m 9,7 km/h (2 Bft) 97,78 %
28.07.2022 22:40 21,4 C 20,6 C 16,7 C 58 % 1016,4 hPa 0,0 l/m 0 min 0 min 0 W/m 6,4 km/h (2 Bft) 93,62 %
28.07.2022 22:42 21,4 C 20,6 C 16,7 C 58 % 1016,4 hPa 0,0 l/m 0 min 0 min 0 W/m 16,1 km/h (3 Bft) 93,62 %
28.07.2022 22:44 21,4 C 20,6 C 16,7 C 58 % 1016,4 hPa 0,0 l/m 0 min 0 min 0 W/m 16,1 km/h (3 Bft) 93,62 %
28.07.2022 22:46 21,4 C 20,6 C 16,7 C 59 % 1016,4 hPa 0,0 l/m 0 min 0 min 0 W/m 12,9 km/h (3 Bft) 93,62 %
28.07.2022 22:48 21,3 C 20,6 C 16,7 C 58 % 1016,4 hPa 0,0 l/m 0 min 0 min 0 W/m 12,9 km/h (3 Bft) 95,74 %
28.07.2022 22:50 21,3 C 20,6 C 16,7 C 58 % 1016,4 hPa 0,0 l/m 0 min 0 min 0 W/m 16,1 km/h (3 Bft) 95,65 %
28.07.2022 22:52 21,3 C 20,6 C 16,7 C 58 % 1016,4 hPa 0,0 l/m 0 min 0 min 0 W/m 9,7 km/h (2 Bft) 95,74 %
28.07.2022 22:54 21,3 C 20,6 C 16,7 C 59 % 1016,4 hPa 0,0 l/m 0 min 0 min 0 W/m 16,1 km/h (3 Bft) 100,00 %
28.07.2022 22:56 21,3 C 20,0 C 16,7 C 59 % 1016,4 hPa 0,0 l/m 0 min 0 min 0 W/m 12,9 km/h (3 Bft) 97,87 %
28.07.2022 22:58 21,2 C 20,0 C 16,7 C 58 % 1016,5 hPa 0,0 l/m 0 min 0 min 0 W/m 6,4 km/h (2 Bft) 97,87 %
28.07.2022 23:00 21,2 C 20,0 C 16,7 C 59 % 1016,4 hPa 0,0 l/m 0 min 0 min 0 W/m 12,9 km/h (3 Bft) 100,00 %
28.07.2022 23:02 21,2 C 20,0 C 16,7 C 59 % 1016,4 hPa 0,0 l/m 0 min 0 min 0 W/m 6,4 km/h (2 Bft) 100,00 %
28.07.2022 23:04 21,2 C 20,0 C 16,7 C 59 % 1016,5 hPa 0,0 l/m 0 min 0 min 0 W/m 6,4 km/h (2 Bft) 100,00 %
28.07.2022 23:06 21,2 C 20,0 C 16,7 C 59 % 1016,4 hPa 0,0 l/m 0 min 0 min 0 W/m 12,9 km/h (3 Bft) 98,00 %
28.07.2022 23:08 21,2 C 20,0 C 16,7 C 59 % 1016,4 hPa 0,0 l/m 0 min 0 min 0 W/m 3,2 km/h (1 Bft) 100,00 %
28.07.2022 23:10 21,1 C 20,0 C 16,7 C 59 % 1016,5 hPa 0,0 l/m 0 min 0 min 0 W/m 9,7 km/h (2 Bft) 100,00 %
28.07.2022 23:12 21,1 C 20,0 C 16,7 C 59 % 1016,5 hPa 0,0 l/m 0 min 0 min 0 W/m 16,1 km/h (3 Bft) 100,00 %
28.07.2022 23:14 21,1 C 20,0 C 16,7 C 59 % 1016,4 hPa 0,0 l/m 0 min 0 min 0 W/m 6,4 km/h (2 Bft) 100,00 %
28.07.2022 23:16 21,1 C 20,0 C 16,7 C 59 % 1016,4 hPa 0,0 l/m 0 min 0 min 0 W/m 3,2 km/h (1 Bft) 97,83 %
28.07.2022 23:18 21,1 C 20,0 C 16,7 C 59 % 1016,4 hPa 0,0 l/m 0 min 0 min 0 W/m 6,4 km/h (2 Bft) 100,00 %
28.07.2022 23:20 21,1 C 20,0 C 16,7 C 59 % 1016,4 hPa 0,0 l/m 0 min 0 min 0 W/m 12,9 km/h (3 Bft) 100,00 %
28.07.2022 23:22 21,1 C 20,0 C 16,7 C 59 % 1016,4 hPa 0,0 l/m 0 min 0 min 0 W/m 19,3 km/h (3 Bft) 100,00 %
28.07.2022 23:24 21,1 C 20,0 C 16,7 C 59 % 1016,4 hPa 0,0 l/m 0 min 0 min 0 W/m 12,9 km/h (3 Bft) 100,00 %
28.07.2022 23:26 21,1 C 20,0 C 16,7 C 59 % 1016,4 hPa 0,0 l/m 0 min 0 min 0 W/m 6,4 km/h (2 Bft) 100,00 %
28.07.2022 23:28 21,1 C 20,0 C 16,7 C 59 % 1016,4 hPa 0,0 l/m 0 min 0 min 0 W/m 12,9 km/h (3 Bft) 100,00 %
28.07.2022 23:30 21,0 C 20,0 C 16,7 C 59 % 1016,3 hPa 0,0 l/m 0 min 0 min 0 W/m 9,7 km/h (2 Bft) 100,00 %
28.07.2022 23:32 21,0 C 20,0 C 16,7 C 59 % 1016,3 hPa 0,0 l/m 0 min 0 min 0 W/m 12,9 km/h (3 Bft) 100,00 %
28.07.2022 23:34 21,0 C 20,0 C 16,7 C 59 % 1016,3 hPa 0,0 l/m 0 min 0 min 0 W/m 16,1 km/h (3 Bft) 100,00 %
28.07.2022 23:36 20,9 C 20,0 C 16,7 C 59 % 1016,3 hPa 0,0 l/m 0 min 0 min 0 W/m 6,4 km/h (2 Bft) 100,00 %
28.07.2022 23:38 20,9 C 20,0 C 16,1 C 59 % 1016,3 hPa 0,0 l/m 0 min 0 min 0 W/m 12,9 km/h (3 Bft) 100,00 %
28.07.2022 23:40 20,9 C 20,0 C 16,1 C 59 % 1016,3 hPa 0,0 l/m 0 min 0 min 0 W/m 9,7 km/h (2 Bft) 100,00 %
28.07.2022 23:42 20,9 C 20,0 C 16,1 C 60 % 1016,3 hPa 0,0 l/m 0 min 0 min 0 W/m 12,9 km/h (3 Bft) 100,00 %
28.07.2022 23:44 20,9 C 20,0 C 16,1 C 59 % 1016,3 hPa 0,0 l/m 0 min 0 min 0 W/m 12,9 km/h (3 Bft) 100,00 %
28.07.2022 23:46 20,8 C 20,0 C 16,1 C 59 % 1016,3 hPa 0,0 l/m 0 min 0 min 0 W/m 6,4 km/h (2 Bft) 97,87 %
28.07.2022 23:48 20,8 C 19,4 C 16,1 C 60 % 1016,4 hPa 0,0 l/m 0 min 0 min 0 W/m 6,4 km/h (2 Bft) 100,00 %
28.07.2022 23:50 20,8 C 19,4 C 16,1 C 60 % 1016,4 hPa 0,0 l/m 0 min 0 min 0 W/m 6,4 km/h (2 Bft) 100,00 %
28.07.2022 23:52 20,8 C 19,4 C 16,1 C 60 % 1016,4 hPa 0,0 l/m 0 min 0 min 0 W/m 9,7 km/h (2 Bft) 100,00 %
28.07.2022 23:54 20,7 C 19,4 C 16,1 C 60 % 1016,4 hPa 0,0 l/m 0 min 0 min 0 W/m 6,4 km/h (2 Bft) 100,00 %
28.07.2022 23:56 20,7 C 19,4 C 16,1 C 60 % 1016,4 hPa 0,0 l/m 0 min 0 min 0 W/m 6,4 km/h (2 Bft) 100,00 %
28.07.2022 23:58 20,7 C 19,4 C 16,1 C 60 % 1016,4 hPa 0,0 l/m 0 min 0 min 0 W/m 9,7 km/h (2 Bft) 100,00 %
_ Min-Zeit 06:12 06:02 05:16 15:46 20:44 - - - - 21:32 04:36
Minimum _ 12,6 C 11,7 C 8,9 C 46 % 1015,5 hPa - - - - 0,0 km/h (0 Bft) 56,52 %
_ Max-Zeit 15:40 15:38 12:42 06:52 00:46 00:00 12:08 17:12 15:24 11:16 00:00
Maximum _ 26,6 C 30,6 C 24,4 C 85 % 1019,9 hPa 0,0 l/m 4 min 2 min 955 W/m 32,2 km/h
O-NO (5 Bft)
100,00 %
Durchschnitt _ 19,7 C 20,1 C 15,6 C 63 % 1017,7 hPa #0,0 l/m #8:26 h #4 min. 397 W/m 10,3 km/h (2 Bft) 97,55 %
© 2022 W. Hausmann